GFSGL_250_rhum_000.txt.gz
RH
100 100 100 100 100 49 34 26 22 21 19 19 20 22 24 23 19 16 14 13 11 9 8 7 6 6 7 6 5 5 11 20 25 50 52 60 80 100 100 100 100 100 100
100 100 100 100 81 35 29 22 17 16 16 17 17 18 16 13 10 7 6 6 5 5 5 5 6 6 6 5 4 4 4 6 11 20 32 46 46 100 100 100 100 100 100
100 100 100 94 51 28 22 18 15 15 16 15 13 10 7 6 5 5 5 5 5 4 4 3 4 4 3 4 4 4 4 5 6 9 19 35 46 57 100 100 100 100 100
100 100 100 71 30 23 17 15 15 15 14 11 8 6 5 5 5 4 4 4 3 3 3 3 3 3 3 3 3 2 3 4 5 5 10 21 35 55 75 100 100 100 100
100 100 91 50 22 17 14 16 15 12 10 6 5 5 6 5 4 3 3 3 3 3 2 2 2 2 3 3 3 3 3 2 4 5 5 17 25 37 59 65 100 100 100
100 95 80 27 18 15 16 16 14 10 7 5 6 6 5 4 3 3 3 3 2 2 2 2 2 2 2 2 2 2 3 2 3 5 5 6 18 28 43 59 92 100 100
100 91 52 18 16 14 16 14 10 7 6 6 5 4 4 3 3 3 2 2 2 2 2 2 2 2 2 2 2 2 2 2 2 3 5 4 7 16 28 46 86 100 100
93 69 23 14 14 14 14 11 7 6 5 5 4 3 3 3 3 2 2 2 2 2 2 2 2 2 2 2 2 2 2 2 3 3 4 5 5 10 20 36 79 97 100
68 39 15 13 13 14 12 7 6 5 5 4 3 3 3 3 2 2 2 2 2 2 2 2 2 2 1 2 2 2 2 2 2 3 3 4 4 6 15 27 41 86 100
41 20 12 12 13 12 8 6 5 5 4 4 3 3 3 2 2 2 2 2 2 2 2 2 2 2 1 1 2 2 2 2 2 2 3 3 3 5 8 19 29 48 81
23 12 12 12 12 8 6 5 5 5 4 3 3 3 2 3 2 2 2 2 2 2 1 1 2 2 2 2 2 2 2 2 2 2 2 3 3 3 5 8 23 30 46
14 11 12 12 9 7 6 5 4 4 3 3 3 3 3 3 2 2 2 2 2 2 1 2 2 2 2 2 2 1 2 2 2 2 2 2 3 3 4 5 10 24 37
11 10 12 10 7 5 5 4 4 3 3 4 3 3 3 3 3 3 3 2 2 2 2 2 2 2 2 2 2 2 2 2 2 2 1 2 2 3 4 4 5 12 26
10 11 10 8 6 5 4 4 3 3 4 3 3 3 3 3 3 3 3 2 2 2 2 2 2 2 2 2 2 2 2 2 2 2 2 2 2 2 4 4 5 6 11
10 11 8 6 6 4 4 3 3 4 4 3 3 3 3 3 3 3 3 2 2 2 2 2 2 2 2 2 2 2 2 2 2 2 2 2 2 2 2 4 4 5 6
11 9 7 6 6 4 3 3 4 4 4 3 3 3 4 3 4 4 4 3 3 2 2 2 2 2 2 2 2 2 2 2 2 2 2 2 2 2 2 3 4 5 6
9 7 6 6 5 4 3 3 4 4 3 3 4 4 4 4 4 5 4 4 3 3 2 2 2 2 2 2 2 2 2 2 2 2 2 2 2 2 2 2 3 5 6
7 6 6 6 4 3 3 4 4 4 3 4 4 4 4 5 5 5 6 6 5 4 3 3 3 2 3 2 2 2 2 2 2 2 2 2 2 2 2 2 3 5 6
6 6 6 5 4 3 4 5 4 4 3 4 4 4 4 6 6 7 8 8 7 5 5 5 4 4 3 3 2 2 2 2 2 2 2 2 2 2 2 2 3 5 6
6 6 5 4 4 4 5 5 5 3 4 4 4 5 5 6 7 8 9 9 7 5 6 7 5 5 4 4 3 3 3 2 3 2 2 3 3 3 3 3 4 5 7
6 5 4 4 4 4 5 5 4 3 4 4 5 5 5 6 8 10 9 12 11 8 7 7 8 9 7 6 5 4 4 4 3 3 3 4 4 4 4 4 5 6 8
5 3 3 4 4 5 5 5 4 3 4 4 5 5 5 6 8 11 11 11 14 12 9 9 9 9 10 8 7 8 7 7 7 6 5 5 5 6 6 7 8 10 12
4 3 4 4 5 5 5 5 3 3 4 4 5 5 5 6 7 10 12 12 13 14 14 14 14 14 14 13 13 12 10 10 10 10 10 9 8 8 8 10 10 12 13
3 4 4 5 6 5 4 4 3 4 4 4 5 6 5 6 7 9 12 15 17 16 18 17 18 20 21 19 17 17 18 19 17 17 16 14 14 12 14 16 16 15 14
3 4 5 6 5 5 4 4 3 4 4 4 5 6 6 6 6 7 9 13 17 18 18 18 19 20 21 23 25 25 25 21 17 17 18 19 19 18 16 16 17 16 16
4 4 5 5 5 4 4 4 3 4 4 4 5 6 6 6 6 6 8 9 10 13 15 16 15 15 17 18 18 20 22 24 25 27 26 24 22 21 20 18 17 17 17

GFSGL_250_rhum_003.txt.gz
RH
100 100 100 100 100 100 97 93 77 45 20 15 13 12 12 12 12 12 12 13 13 13 14 13 14 14 15 18 18 16 16 18 21 35 51 54 60 60 91 99 100 100 56
100 100 100 100 100 100 96 77 52 25 14 12 12 12 13 14 14 14 14 14 13 13 13 10 8 9 12 13 14 13 11 10 8 7 12 21 32 46 54 62 95 100 100
100 100 100 100 100 94 74 47 29 14 12 12 12 13 14 14 12 10 8 8 6 5 5 5 5 5 4 4 4 5 5 5 5 5 7 8 12 15 21 28 43 79 100
100 100 100 100 99 83 48 32 16 12 11 12 13 12 10 8 6 5 5 5 5 5 5 4 4 3 3 3 3 3 3 3 3 4 4 5 6 8 9 12 19 28 65
100 98 100 100 83 60 31 20 12 10 11 12 11 8 6 5 5 5 4 5 4 4 4 3 3 3 3 3 3 3 2 2 2 2 2 3 4 6 6 9 13 23 36
97 92 95 93 74 32 18 13 10 10 11 10 7 6 6 5 5 4 4 4 3 3 3 2 2 3 3 3 3 3 3 3 2 2 2 3 3 4 5 7 9 10 18
79 88 88 74 48 16 12 10 10 11 10 7 6 5 5 4 4 4 3 3 2 2 3 2 2 2 2 2 2 2 2 2 2 2 2 3 3 4 5 5 6 8 11
86 79 75 53 23 12 10 10 10 10 7 6 5 5 5 4 4 3 3 3 3 2 2 2 2 2 2 2 2 2 2 2 2 2 2 3 3 3 3 4 5 6 8
81 78 49 33 16 11 10 10 10 8 6 5 5 4 4 3 3 3 3 2 2 2 2 2 2 2 2 2 2 2 2 2 2 2 2 2 3 3 3 3 4 6 7
65 54 32 23 12 10 10 11 9 6 6 5 5 4 3 3 3 3 2 2 2 2 2 2 2 2 2 2 2 2 2 2 2 2 2 2 2 3 3 3 3 4 5
63 35 25 13 10 9 10 9 7 6 6 5 4 3 3 4 3 2 2 2 2 2 2 2 2 2 1 1 1 2 1 1 1 2 2 2 2 2 3 3 3 4 4
44 26 15 10 8 9 10 7 6 6 6 4 3 4 4 3 2 3 2 2 2 2 2 2 2 2 1 1 1 1 1 1 2 2 1 2 2 2 2 3 3 3 4
27 17 10 8 9 9 8 6 6 6 5 3 3 4 4 3 3 3 3 2 2 2 2 2 2 2 2 2 2 2 2 2 2 1 2 2 2 2 2 2 2 2 3
17 10 8 8 9 7 6 6 6 6 4 3 4 4 3 3 3 3 3 3 2 2 2 2 2 2 2 2 2 2 2 2 2 1 1 2 2 2 2 2 2 3 3
9 8 8 9 8 6 6 6 6 4 4 4 4 4 3 3 4 3 3 3 3 3 2 2 2 2 2 2 2 2 2 2 2 2 1 2 2 2 2 2 2 2 3
8 8 8 8 7 6 6 6 5 4 4 5 4 3 3 4 4 4 4 3 3 3 3 2 2 2 2 2 2 2 2 2 2 2 1 1 2 2 2 2 2 2 3
7 8 8 6 6 7 6 5 4 4 5 5 4 4 4 4 4 4 4 4 4 4 3 3 3 2 2 2 2 2 2 2 2 2 0 1 2 2 2 2 2 2 3
8 8 6 6 7 6 5 4 4 5 6 6 4 4 4 5 5 5 4 5 5 5 4 3 4 3 3 3 2 2 2 2 2 2 2 2 2 2 2 2 2 2 2
8 6 6 6 6 5 4 4 4 5 6 6 4 5 5 5 5 6 5 5 6 5 4 4 4 4 4 4 4 3 2 2 2 2 2 2 2 2 2 2 2 2 2
6 6 6 6 5 4 4 4 5 5 6 5 4 5 5 6 5 6 6 6 7 5 5 5 4 4 4 4 5 4 3 3 2 2 2 2 2 2 2 2 2 2 3
6 6 6 5 4 4 4 5 5 5 5 4 4 5 6 6 6 8 9 7 9 8 9 9 6 6 6 7 6 5 6 5 4 3 3 2 2 2 2 2 2 2 3
6 5 5 4 3 4 5 6 5 5 5 4 4 5 6 6 6 8 10 8 9 12 13 12 10 9 9 8 7 6 7 6 6 6 5 3 3 3 3 3 3 3 3
5 4 4 3 3 4 5 6 5 5 5 4 4 5 6 7 7 8 11 12 12 12 16 14 13 13 12 11 10 10 7 6 6 6 7 6 6 5 4 3 4 4 4
4 3 3 3 4 4 5 5 5 4 4 4 4 5 5 6 7 8 10 14 13 14 17 16 14 14 15 14 14 12 11 11 10 10 10 10 10 9 7 6 5 5 4
3 2 3 3 4 4 4 4 4 4 4 4 4 5 5 6 7 7 9 12 14 15 15 16 15 14 15 15 16 18 17 15 14 14 14 12 12 13 12 13 11 9 8
2 2 3 3 4 4 4 4 4 4 4 4 5 5 5 6 7 7 8 10 12 13 13 13 14 14 14 15 16 18 19 17 15 15 17 16 16 15 15 14 15 15 15

GFSGL_250_rhum_006.txt.gz
RH
100 98 100 100 98 89 95 100 100 100 95 65 48 23 17 15 11 11 11 11 10 11 11 10 11 11 12 14 15 18 20 18 19 42 56 49 42 60 93 100 100 100 100
100 100 100 100 100 94 86 100 100 100 73 42 32 14 12 11 10 10 10 11 11 12 12 12 12 12 11 10 11 11 12 15 16 22 24 37 54 56 43 70 100 100 98
97 100 100 95 94 96 76 73 94 76 42 34 21 11 10 10 10 10 11 11 11 11 11 10 10 9 10 10 10 9 9 9 9 10 18 19 22 25 39 56 53 84 100
92 100 99 100 95 71 72 73 68 48 32 26 12 10 9 9 10 10 10 8 7 6 6 6 6 5 4 5 5 6 6 7 7 5 6 12 13 18 20 21 30 52 54
97 100 99 93 83 63 53 56 45 38 25 14 10 8 9 10 9 7 7 6 6 5 5 4 4 4 4 4 4 4 4 4 4 4 4 5 6 9 14 17 14 15 22
92 88 96 87 67 39 43 40 37 28 15 9 8 8 10 8 6 5 5 5 4 4 4 3 3 3 3 3 3 3 3 4 4 4 4 4 4 4 5 6 6 6 7
75 88 75 51 33 31 33 34 30 17 9 8 8 9 8 6 5 4 4 4 3 3 3 3 3 2 2 2 2 2 2 2 2 2 3 3 3 3 4 4 4 4 4
98 84 69 30 27 28 29 26 19 9 8 8 8 7 6 5 4 4 3 3 3 3 3 3 3 3 2 2 2 2 2 2 2 2 2 2 2 2 3 3 3 3 3
91 85 45 24 23 24 21 17 9 8 8 8 7 5 5 4 4 3 3 3 3 3 3 2 2 2 2 2 2 2 2 2 2 2 2 2 2 2 2 2 2 2 3
68 43 24 19 22 18 14 10 8 8 8 7 6 5 5 4 3 3 4 4 3 2 2 2 2 2 2 2 2 2 2 2 2 2 2 2 2 2 2 2 2 2 3
32 19 18 19 18 14 10 8 8 9 8 6 6 5 4 3 3 3 4 3 2 2 2 2 2 2 2 2 2 2 2 2 2 2 2 2 2 2 2 2 2 2 3
16 14 16 17 14 10 7 7 8 8 6 6 6 5 4 3 4 4 3 3 2 2 2 2 2 2 2 2 2 2 1 1 1 2 2 2 2 2 1 2 2 2 2
12 14 14 13 11 7 7 8 9 7 6 6 5 4 4 4 4 4 3 2 3 3 2 2 2 2 2 2 2 2 1 2 1 1 1 2 1 1 1 2 2 2 2
13 12 12 11 8 6 8 8 7 7 6 6 4 4 4 5 5 3 3 3 3 3 3 3 2 2 2 2 2 2 2 2 2 2 2 1 1 1 1 2 2 2 2
11 11 10 7 6 7 8 8 7 6 6 5 4 4 5 6 4 4 4 4 4 4 4 3 3 3 2 2 2 2 2 2 2 2 2 2 2 2 2 2 1 2 2
11 9 7 6 7 8 8 6 6 6 5 4 4 5 6 6 4 4 4 4 5 5 4 4 4 3 2 2 2 2 2 2 2 2 2 2 2 2 2 2 2 2 2
8 6 6 7 8 8 7 7 6 5 4 4 5 6 6 5 4 4 4 5 5 5 5 6 5 4 3 3 2 2 2 2 2 2 2 2 2 2 2 2 2 2 2
6 6 7 7 7 6 6 6 5 4 4 5 5 6 6 4 4 5 5 6 5 6 6 6 4 4 4 3 3 2 2 2 2 2 2 2 2 1 2 2 2 2 2
6 6 7 7 6 6 6 5 4 4 4 6 6 6 6 4 5 5 6 6 6 6 8 6 6 6 5 4 4 3 3 3 2 2 2 2 2 2 2 2 2 2 2
6 7 6 6 6 5 5 4 3 4 6 7 6 6 5 4 5 5 6 6 6 7 8 9 8 7 7 6 5 5 4 3 3 3 2 2 2 2 2 2 2 2 2
6 6 5 5 5 4 4 3 3 5 6 7 6 6 5 4 5 6 6 6 6 7 11 11 11 10 9 8 7 5 4 5 4 3 3 3 2 2 2 2 2 2 2
5 5 5 5 4 4 3 3 4 6 6 6 6 6 4 5 6 6 6 6 6 8 14 13 12 10 10 12 12 11 8 6 5 5 4 4 3 3 3 3 3 2 2
5 5 4 4 4 3 3 3 4 5 5 6 5 5 4 5 6 6 7 7 7 8 12 13 13 13 12 13 11 10 9 8 7 6 5 5 4 4 4 4 3 3 3
5 4 4 4 3 3 3 3 4 5 5 5 5 5 4 5 6 6 7 7 8 9 12 12 13 13 14 13 12 14 14 11 9 8 6 5 4 5 5 5 4 4 4
4 4 4 3 2 3 3 4 4 4 5 5 5 4 4 5 6 6 7 7 8 9 10 12 12 12 13 14 13 12 12 12 12 12 11 9 7 7 6 5 5 5 5
4 4 3 2 3 3 4 4 4 4 5 5 4 4 4 6 6 6 7 8 8 8 9 10 11 11 12 13 13 13 12 11 12 12 12 12 10 8 7 7 7 7 6

GFSGL_250_rhum_009.txt.gz
RH
72 64 65 82 96 99 95 98 100 85 75 72 64 37 26 24 26 26 18 12 10 10 10 9 10 9 10 10 10 10 12 12 20 38 30 25 20 20 33 53 83 100 100
62 62 72 92 100 100 100 100 87 81 64 51 41 23 22 23 24 16 10 9 9 9 9 9 10 10 9 10 9 9 9 9 11 24 29 25 22 19 18 22 32 49 96
63 92 98 100 100 100 93 83 78 70 54 35 20 21 21 20 14 9 8 8 8 9 9 9 9 9 9 9 9 10 10 9 9 11 15 20 21 21 20 18 18 23 33
88 99 100 98 91 87 77 68 61 41 26 19 17 19 15 11 8 8 8 8 9 9 8 7 6 6 6 7 7 7 7 8 8 10 12 13 14 19 21 21 21 20 19
95 75 72 68 64 63 61 50 34 31 18 14 16 14 10 8 7 8 8 8 7 6 5 5 5 4 4 5 5 5 5 4 4 5 9 11 12 12 12 16 17 18 19
52 60 58 49 41 39 33 24 20 15 11 14 13 9 7 7 8 8 6 6 6 5 5 4 4 4 3 4 4 4 4 4 4 4 4 5 7 10 9 10 11 14 15
50 50 48 36 27 20 18 15 11 10 12 12 10 7 7 8 7 6 5 5 5 4 4 3 3 3 3 3 3 3 3 3 3 4 4 4 4 4 4 6 8 9 11
44 33 23 16 15 15 12 10 11 12 11 10 8 6 8 7 6 5 5 4 4 3 3 3 3 3 3 3 3 3 3 2 2 3 3 3 3 3 3 3 3 4 6
21 13 12 14 13 10 11 11 11 11 10 8 6 7 8 6 5 5 5 4 3 3 3 3 4 3 3 3 3 2 2 2 2 2 3 3 3 2 3 3 3 3 4
12 13 14 9 9 12 11 10 10 10 8 6 7 7 6 6 5 5 4 3 3 3 3 3 2 2 2 2 2 2 2 2 2 2 2 2 2 2 2 2 2 3 3
12 11 8 9 12 11 10 10 11 8 6 7 7 6 6 6 5 4 3 3 4 4 3 2 2 2 2 2 2 2 2 2 2 2 2 2 2 2 2 2 2 2 3
10 9 10 12 11 10 10 10 7 6 6 7 6 6 6 6 4 3 3 4 4 3 3 3 3 2 2 2 2 2 2 2 2 2 2 2 2 2 2 2 2 2 2
10 12 13 12 10 11 9 7 6 6 7 6 6 6 6 5 4 4 4 5 4 3 3 3 3 3 2 2 2 2 2 2 2 2 2 2 1 1 2 1 2 2 2
13 13 11 11 11 9 6 6 6 7 7 5 6 6 5 4 4 4 5 5 4 4 4 4 3 3 3 2 2 2 2 2 2 2 2 2 2 1 1 2 2 1 1
12 11 10 10 8 6 6 6 7 7 7 5 6 5 4 4 5 5 6 5 4 4 4 4 4 3 3 2 2 2 2 2 2 2 2 2 2 2 2 1 2 2 2
11 10 10 7 5 5 6 7 6 6 6 5 5 5 4 5 5 6 6 4 5 5 5 5 4 4 4 3 3 2 2 2 2 2 2 2 2 2 2 2 2 2 2
10 8 6 5 5 6 7 6 5 5 6 5 5 4 4 6 6 6 5 4 5 5 5 6 6 6 4 3 3 3 3 2 2 2 2 2 2 2 2 2 2 2 2
7 5 5 5 6 6 6 5 5 5 4 4 4 4 5 6 6 6 4 5 5 6 7 7 8 6 5 4 3 3 3 2 2 2 2 2 2 2 2 2 2 2 2
5 5 5 6 5 5 5 5 5 4 4 3 4 5 6 6 6 5 4 5 6 6 8 9 9 9 6 4 4 3 3 3 3 2 2 2 2 2 2 2 1 2 2
5 5 6 5 5 5 5 4 4 4 3 3 5 6 6 6 6 5 4 5 6 7 12 11 10 10 9 6 5 5 4 3 3 2 2 2 2 2 2 2 1 2 2
6 6 5 5 5 5 4 4 4 3 3 3 5 6 6 6 5 4 4 6 6 7 13 13 16 14 12 10 7 6 6 5 4 3 3 3 2 2 2 2 2 2 2
6 5 5 5 4 4 4 4 3 3 3 3 5 5 5 5 5 4 5 6 6 7 13 13 13 12 13 13 12 10 8 7 6 5 4 3 3 2 2 2 2 2 2
5 5 5 4 4 4 4 3 3 3 3 4 5 5 5 5 5 4 5 6 6 7 10 14 15 14 14 14 12 12 11 9 7 6 6 6 4 3 3 2 2 2 2
5 5 4 4 4 3 3 2 3 4 4 5 4 5 5 5 4 4 5 6 6 7 9 11 12 14 15 16 16 13 12 12 11 9 7 6 6 5 4 3 3 3 3
5 4 4 4 3 2 2 3 3 4 5 5 4 5 5 4 4 4 5 6 6 7 8 9 10 11 14 15 15 13 12 11 11 10 9 7 6 5 5 4 4 3 3
5 4 4 3 2 3 3 3 4 4 5 4 5 5 5 4 4 4 5 6 6 6 8 8 8 9 9 10 10 10 11 10 10 9 10 10 9 7 6 5 4 4 4

GFSGL_250_rhum_012.txt.gz
RH
95 100 100 92 77 64 57 47 46 49 48 51 51 49 38 29 24 20 16 13 14 16 14 11 9 7 7 7 7 8 8 8 13 18 25 37 36 32 38 42 37 30 82
91 76 61 51 45 44 46 47 46 51 47 43 33 22 19 16 16 13 11 13 15 11 8 7 7 6 7 7 7 7 7 8 9 12 13 20 29 31 28 35 40 30 26
70 52 47 49 52 48 45 44 45 39 27 16 12 13 14 13 11 11 13 14 11 8 7 7 8 8 8 8 8 8 8 8 9 9 12 12 14 20 25 26 29 31 26
51 50 52 52 49 40 28 26 22 16 12 14 14 11 10 11 12 13 12 10 7 7 7 8 7 7 7 6 6 6 6 6 7 9 11 12 11 11 11 14 18 22 28
59 55 51 44 26 20 15 13 12 12 13 12 10 12 13 12 11 11 10 7 7 8 8 6 6 5 5 4 5 4 4 5 6 6 9 10 11 11 10 10 11 12 14
41 37 33 20 15 13 13 11 11 10 9 9 12 11 10 10 10 9 6 7 8 7 6 5 4 4 4 4 4 4 4 4 4 5 5 6 9 10 9 9 9 9 10
30 27 18 14 15 14 13 12 10 10 10 11 10 9 9 8 7 6 6 8 7 5 5 5 4 4 4 4 3 3 3 3 3 4 4 4 4 4 6 8 8 8 10
22 16 15 16 17 16 14 12 13 14 13 11 10 9 7 6 6 6 8 6 5 5 5 4 4 3 3 3 3 3 3 3 3 3 3 3 3 3 4 4 6 8 8
17 17 17 17 16 15 15 15 14 14 12 11 9 7 6 6 7 7 6 5 5 5 4 4 3 3 3 3 4 3 3 3 3 3 3 3 3 4 3 4 4 4 6
16 16 16 16 15 15 14 14 13 12 11 10 7 6 6 8 7 6 6 6 5 4 3 4 5 4 4 3 3 3 2 2 2 2 2 3 3 3 3 3 4 4 4
15 15 15 14 13 12 12 11 11 10 9 7 6 6 7 8 6 6 6 5 4 3 4 5 5 4 3 3 2 2 2 2 2 2 2 2 2 2 2 2 2 3 3
14 14 13 12 11 10 10 10 9 8 6 6 5 6 7 6 6 6 5 4 4 4 5 5 4 3 3 3 3 3 3 2 2 2 2 2 2 2 2 2 2 2 2
13 12 11 10 10 10 9 9 7 6 6 5 6 6 6 6 6 5 4 4 5 5 6 4 4 3 4 3 3 3 3 2 2 2 2 2 2 2 2 2 2 2 2
12 10 10 10 10 8 7 5 5 5 6 6 6 6 6 6 5 4 4 5 5 6 6 4 4 4 4 4 3 3 3 2 2 2 2 2 2 2 2 2 2 2 2
10 10 9 9 7 5 5 5 5 6 7 6 5 6 6 5 4 4 4 6 6 6 5 5 5 5 4 4 4 3 3 2 2 2 2 2 2 2 2 2 1 1 1
10 9 8 6 5 5 5 5 6 6 6 6 6 6 5 4 4 4 5 7 7 6 5 5 5 6 5 4 4 3 3 3 3 2 2 2 2 2 2 2 2 2 1
8 6 5 5 5 5 6 6 5 4 5 6 5 5 4 3 4 5 7 7 7 5 6 6 6 6 6 6 4 4 5 4 3 3 2 2 2 2 2 2 2 2 2
5 5 5 5 5 5 5 5 5 5 4 5 4 4 3 3 5 6 7 7 7 5 6 7 8 8 7 7 6 5 4 4 3 3 2 2 2 2 2 2 2 2 2
5 6 5 5 5 4 5 5 4 4 4 4 4 3 3 4 5 7 7 7 6 5 7 8 9 10 8 9 8 5 4 4 4 3 3 2 2 2 2 2 2 2 2
6 6 6 5 5 4 4 4 4 4 4 3 3 3 3 4 6 6 7 7 5 6 9 10 11 11 10 10 9 7 5 4 3 4 3 3 2 2 2 2 2 2 2
6 5 5 5 4 4 4 4 4 4 3 3 3 3 3 4 6 6 6 6 5 7 10 10 10 11 12 12 11 10 8 7 5 4 4 4 3 3 2 2 2 2 1
5 5 5 4 4 4 4 4 3 3 2 3 3 4 4 5 6 6 6 6 5 7 10 12 12 13 13 14 12 11 9 8 7 6 4 4 4 3 3 2 2 2 2
6 5 5 4 4 4 4 3 3 3 3 3 4 4 5 5 5 6 5 5 5 7 9 11 12 14 13 12 11 10 9 7 7 7 6 4 4 4 4 3 2 2 2
6 5 5 4 4 4 3 3 3 3 4 4 5 5 5 5 5 5 5 4 5 6 8 10 11 11 11 12 12 11 11 10 9 8 8 7 5 4 4 4 3 3 3
5 5 4 4 3 2 2 3 3 3 4 4 4 5 5 5 5 5 4 4 5 6 7 8 10 10 10 10 10 11 10 10 9 8 8 7 7 7 5 4 4 4 3
5 5 4 3 2 2 3 3 3 3 4 4 4 4 5 5 5 5 4 4 5 6 6 7 8 9 9 9 9 9 9 9 8 9 8 7 6 6 6 6 4 4 3

GFSGL_250_rhum_015.txt.gz
RH
80 71 63 57 51 55 58 57 55 44 29 27 25 18 17 16 14 13 13 13 13 11 10 10 11 10 11 12 12 11 10 9 13 21 19 20 21 20 20 25 31 36 41
82 62 55 52 55 57 60 57 38 25 24 21 17 18 17 16 14 13 11 10 10 10 13 11 11 10 11 10 7 7 7 7 7 8 10 11 11 13 14 14 24 35 41
59 53 51 51 55 56 47 30 22 19 17 16 17 17 16 15 13 12 11 12 15 14 12 10 10 9 8 7 6 6 6 7 7 7 8 9 9 8 9 9 12 21 32
50 49 59 56 51 44 28 23 19 17 16 16 16 16 16 15 14 14 15 15 13 11 10 9 8 6 6 6 6 7 7 7 7 8 8 8 8 8 7 8 9 11 20
51 54 53 47 31 25 21 18 17 15 16 16 17 17 17 16 15 14 14 13 12 11 9 6 6 6 6 6 6 6 5 5 6 5 6 8 9 8 7 7 8 8 9
54 47 38 27 20 17 15 14 14 14 14 15 14 15 15 15 14 12 11 12 10 7 6 6 6 7 6 6 5 5 4 4 4 4 4 5 6 8 8 7 6 7 8
41 30 21 18 15 14 13 14 14 14 14 13 13 12 12 10 10 10 10 8 6 6 6 7 7 6 6 5 5 4 4 4 4 4 4 4 4 4 6 8 7 7 8
26 19 15 13 12 12 13 13 13 13 12 12 11 11 10 10 9 8 6 6 6 6 7 6 6 6 5 4 4 3 3 3 3 3 3 3 4 4 4 5 7 7 8
17 14 12 12 11 11 12 12 12 12 11 11 10 10 10 8 7 6 5 6 6 6 6 6 6 5 4 3 3 3 3 3 3 3 3 2 2 3 4 4 4 5 6
14 12 10 10 10 10 11 11 11 11 11 11 10 8 6 6 6 5 6 7 6 6 6 6 5 4 3 4 4 4 4 3 3 3 3 3 3 3 2 3 3 4 5
10 9 9 10 10 10 10 10 10 10 9 8 6 5 5 6 6 6 7 6 6 6 6 5 4 4 5 5 5 4 3 3 2 2 2 2 2 2 3 3 3 3 4
9 9 9 10 10 9 9 9 8 7 6 5 5 5 5 6 7 6 6 6 6 6 5 4 5 5 6 5 4 4 4 3 3 2 2 2 2 2 2 2 3 3 3
9 10 10 10 10 9 8 6 5 5 6 6 5 6 6 7 6 6 6 7 6 6 4 5 6 6 5 4 4 4 4 3 3 2 2 2 2 2 2 2 2 2 2
9 9 9 9 7 5 5 5 5 6 6 6 6 5 5 6 5 6 6 6 6 5 5 6 6 6 4 4 4 4 4 4 3 3 3 2 2 2 2 2 2 2 2
9 9 8 5 5 5 5 5 6 6 6 6 5 5 5 5 5 6 6 5 4 5 6 7 6 5 5 5 5 4 4 4 3 3 2 2 2 2 2 2 2 2 2
9 6 4 4 5 5 6 6 6 6 6 5 5 5 5 5 5 5 5 4 4 6 7 7 6 5 6 6 6 5 5 4 3 3 2 2 2 2 2 2 2 2 1
5 4 4 5 6 6 6 5 5 4 5 5 4 5 4 4 5 4 3 4 6 8 8 8 6 6 6 7 7 6 6 5 4 4 3 2 2 2 2 2 2 2 2
4 4 5 6 6 5 5 5 5 5 4 4 4 4 4 4 4 3 4 5 7 8 8 7 6 6 7 8 8 8 9 7 5 5 4 3 3 2 2 2 2 2 2
4 5 6 6 5 5 5 5 4 4 4 4 4 4 3 3 3 3 4 5 7 8 8 6 6 8 8 10 10 10 10 8 6 5 4 3 3 3 2 2 2 2 2
6 6 6 5 5 4 5 4 4 4 4 4 3 3 3 3 3 3 4 6 7 8 8 6 7 8 9 10 11 10 9 8 6 5 4 3 3 3 3 2 2 2 2
7 5 5 5 5 5 4 4 4 3 3 2 2 3 3 3 4 4 5 6 7 7 7 6 7 8 9 11 11 10 10 9 9 8 6 5 4 3 3 3 2 2 2
5 5 5 5 5 4 4 4 3 3 3 3 3 3 4 4 5 5 6 6 7 7 6 7 8 8 10 11 12 11 11 10 8 7 8 7 6 4 4 3 2 2 2
5 5 5 5 5 5 4 3 2 2 3 3 3 4 4 5 5 6 5 6 6 7 6 7 8 9 10 10 10 11 11 11 11 9 7 7 7 5 4 5 4 3 2
5 5 5 5 5 4 3 2 2 3 3 3 3 4 4 5 5 5 6 6 6 6 6 7 8 9 10 11 11 10 9 9 10 9 8 7 6 6 6 4 4 4 3
6 6 5 5 4 3 2 2 3 3 3 3 3 4 4 4 5 5 6 6 6 5 5 6 8 8 9 10 10 10 9 9 9 8 8 8 7 6 5 6 4 4 4
6 5 5 5 3 3 3 3 3 3 3 3 3 4 4 4 4 5 5 6 5 5 5 6 7 8 8 9 10 10 9 8 8 8 7 7 6 6 5 5 5 5 4

GFSGL_250_rhum_021.txt.gz
RH
79 73 75 86 91 92 96 84 75 64 48 36 28 21 18 14 12 11 10 10 10 10 10 11 11 11 12 12 12 13 13 13 13 17 14 13 13 14 13 13 13 11 10
87 100 100 100 96 84 69 64 51 42 28 20 16 14 12 10 9 8 8 8 8 8 9 9 10 10 11 12 12 12 12 12 12 13 15 12 12 12 12 12 10 9 8
100 100 100 99 92 75 72 45 30 22 16 13 11 9 8 7 7 8 8 8 8 8 8 9 9 10 11 11 12 12 12 12 11 11 13 13 13 14 13 12 11 10 8
100 100 98 89 75 54 28 20 16 15 12 9 8 7 7 7 8 8 8 9 9 9 9 9 9 10 10 10 10 10 10 10 9 8 9 10 10 11 11 10 10 9 9
100 97 89 65 34 20 16 14 12 10 8 6 6 7 8 8 8 9 10 10 9 9 9 9 9 9 9 10 10 9 9 8 8 7 7 8 8 7 7 8 7 7 7
99 89 57 27 15 14 12 10 8 7 7 7 7 8 8 8 8 8 9 9 10 10 10 10 10 9 9 9 9 9 8 7 6 5 5 5 5 5 5 5 5 5 5
81 60 19 14 14 12 8 7 6 7 7 8 8 8 8 8 8 7 7 7 8 8 9 9 9 8 8 8 7 6 5 5 5 5 5 6 6 6 6 6 6 5 5
54 18 14 13 10 8 7 7 7 8 8 8 8 7 6 5 5 5 4 4 4 5 5 5 6 5 5 6 5 5 5 5 6 6 6 5 5 4 5 5 5 5 4
19 13 12 9 8 7 7 8 7 6 5 4 4 4 4 4 4 4 4 4 4 5 5 6 5 5 5 5 5 6 6 6 6 6 5 4 4 4 4 4 4 4 4
13 11 9 8 7 7 8 6 4 4 4 4 4 4 4 4 5 5 5 5 5 5 6 6 6 6 6 6 6 6 5 6 6 5 4 4 3 3 3 3 3 3 3
11 9 8 7 7 7 5 4 4 4 4 4 4 4 5 6 6 6 5 5 6 6 6 7 7 6 6 6 6 6 6 5 4 4 4 4 4 4 4 4 4 3 3
9 8 7 7 6 4 4 4 4 4 4 4 5 5 5 6 6 5 4 5 6 6 6 6 6 6 7 7 7 6 5 4 5 5 5 5 4 4 3 4 4 4 3
7 7 7 6 4 4 4 5 4 4 5 5 5 4 4 4 5 5 5 5 6 6 6 6 6 7 7 7 6 5 4 6 6 6 4 4 3 3 3 3 3 3 3
7 7 6 4 4 5 5 5 5 6 5 4 4 4 4 4 4 4 5 6 6 6 7 7 6 7 7 7 5 5 7 7 6 5 4 4 4 4 3 3 3 3 2
7 6 5 5 5 6 5 5 6 5 5 5 4 4 4 4 4 4 4 5 5 6 6 6 6 7 6 5 5 7 8 7 5 5 5 5 4 4 4 3 3 3 2
6 5 5 5 6 6 5 5 4 4 5 5 4 4 4 4 4 4 4 5 5 6 6 6 6 5 4 5 7 8 8 6 5 6 6 5 4 4 4 3 3 2 2
5 5 5 6 6 6 6 5 4 4 4 4 4 4 4 4 4 4 4 4 4 4 4 4 4 4 5 7 8 9 8 6 6 6 6 7 6 4 3 3 3 3 2
6 6 6 6 6 6 6 5 5 4 4 4 4 4 3 3 3 3 3 3 3 3 4 4 4 4 6 8 9 9 7 7 8 9 9 9 7 4 3 3 2 3 2
6 6 6 6 6 6 5 5 5 4 4 4 3 2 2 2 3 3 3 3 3 3 4 4 4 5 7 9 9 9 7 8 9 10 11 9 6 5 4 4 3 2 2
6 7 6 6 6 5 5 5 5 4 4 4 3 2 2 3 3 3 4 4 4 4 4 4 5 6 8 9 9 9 8 9 9 12 11 11 8 6 5 4 3 3 2
7 6 6 6 6 5 6 5 4 4 4 3 3 2 2 3 3 3 4 5 6 6 6 6 7 8 9 9 10 9 9 10 10 11 12 12 10 7 5 5 5 3 3
6 6 6 6 6 6 6 5 5 5 4 3 3 3 3 3 3 4 4 5 6 7 7 7 8 8 8 9 9 8 8 9 10 11 12 12 10 8 7 5 4 4 3
6 6 6 6 6 6 5 6 5 4 3 3 3 3 3 3 3 4 4 4 5 6 7 7 7 7 8 8 8 8 8 9 9 10 10 9 8 7 7 6 4 4 4
6 6 6 6 6 6 6 5 4 4 4 3 3 3 3 4 4 4 4 4 4 5 6 6 7 7 7 7 7 7 7 8 8 8 9 9 8 6 6 6 5 4 4
6 7 6 6 6 6 5 4 5 4 4 4 3 3 3 3 4 4 4 4 4 5 5 6 6 6 6 6 6 6 7 7 7 7 8 8 7 7 6 5 5 5 4
7 7 6 6 5 5 5 6 5 5 4 4 3 3 3 3 3 4 4 4 4 4 5 5 6 6 6 6 5 5 6 6 6 6 6 7 7 6 6 5 5 5 4

GFSGL_250_rhum_024.txt.gz
RH
87 93 89 92 95 100 100 100 100 92 74 55 38 14 13 12 10 9 8 7 6 6 6 7 7 7 7 7 8 8 8 9 10 13 13 15 18 16 14 12 12 13 16
87 93 98 100 100 95 100 97 88 64 50 31 14 12 10 8 7 6 6 6 6 7 7 7 7 7 7 7 7 8 8 8 9 11 13 13 13 15 16 15 14 12 12
100 100 100 100 96 100 94 72 52 39 26 13 11 8 7 6 6 6 7 7 8 8 8 8 8 8 8 8 8 8 8 8 8 10 12 13 13 14 14 15 14 13 11
100 100 100 97 100 88 69 50 37 21 13 11 8 6 6 6 7 7 8 8 8 8 8 8 8 9 9 9 9 9 9 9 9 9 11 12 12 13 14 14 13 12 11
100 100 100 100 72 56 45 31 16 11 8 6 6 6 7 7 6 6 6 6 7 8 8 8 8 8 8 9 9 9 10 10 9 9 10 11 12 12 12 12 12 12 11
100 93 80 58 43 35 24 13 11 7 6 6 6 6 6 4 4 4 4 4 4 4 4 4 5 6 7 8 9 10 9 9 9 9 9 10 10 10 11 11 11 11 11
83 63 40 33 26 16 13 10 7 6 6 6 5 4 4 4 4 4 4 4 4 4 4 4 4 4 5 6 6 7 7 8 8 8 10 10 10 9 9 9 9 9 8
40 29 25 17 14 12 8 6 6 6 5 4 3 4 4 4 4 4 4 4 4 4 5 5 5 5 5 5 5 5 5 5 6 5 5 6 6 6 6 6 6 6 6
22 18 14 13 11 7 7 6 6 4 4 4 4 4 4 4 4 5 5 5 5 5 6 6 6 5 5 6 5 5 5 5 6 6 6 5 5 6 6 6 6 6 6
14 12 12 9 7 7 6 6 4 4 4 4 5 4 4 6 6 6 5 5 5 6 6 6 6 6 6 6 6 6 6 7 7 8 7 6 5 5 5 5 5 5 4
13 11 8 7 7 6 5 5 4 5 5 5 4 5 6 6 6 5 4 4 5 6 6 6 6 6 6 6 6 6 7 7 7 7 7 6 5 4 4 3 3 3 3
10 7 6 6 6 5 5 5 5 5 6 5 4 4 4 5 5 4 5 5 5 5 5 5 6 6 6 6 6 6 7 7 8 7 7 5 4 4 5 5 4 4 4
7 6 6 5 5 5 5 5 5 6 5 4 4 4 4 4 4 4 4 4 5 5 6 6 6 6 7 7 7 8 8 8 7 6 5 6 6 6 5 4 4 3 4
6 6 5 5 5 5 5 5 6 6 5 4 4 4 4 4 4 4 4 4 4 5 5 6 6 6 7 8 8 8 8 8 5 5 6 7 6 5 4 4 3 3 3
5 5 5 5 5 5 5 6 6 6 5 4 4 4 4 4 4 4 4 4 4 5 5 5 6 6 7 8 8 8 8 6 5 7 8 7 6 6 5 5 4 3 3
4 4 5 5 6 5 6 6 6 5 5 5 5 4 4 4 4 3 2 3 3 4 5 5 6 6 7 8 7 6 6 6 8 9 9 7 6 6 5 5 4 3 3
5 5 6 6 6 6 6 5 5 4 4 5 4 4 4 3 2 2 2 2 3 3 4 4 4 5 5 6 6 6 7 9 10 10 8 8 7 6 5 5 4 3 2
5 5 6 6 6 6 5 5 5 5 4 4 4 4 4 3 2 2 3 3 3 3 3 4 4 4 5 5 5 6 8 10 10 10 9 10 8 7 5 5 4 3 3
5 6 6 6 6 5 6 5 5 5 4 4 5 4 3 3 3 3 3 4 4 4 4 4 4 4 4 5 6 7 10 10 11 9 9 10 10 9 6 5 4 4 3
6 6 6 6 6 6 6 6 6 5 5 5 4 3 3 3 3 3 3 4 4 5 6 6 5 5 5 5 6 9 10 11 11 9 10 10 10 10 8 6 5 4 3
6 6 6 6 6 6 6 6 6 5 5 4 3 4 3 3 3 3 4 4 4 5 6 7 7 7 6 7 8 9 10 10 10 10 10 10 10 10 8 7 6 5 4
6 6 7 7 6 7 6 6 6 4 4 4 4 4 4 3 4 4 4 4 4 4 5 7 8 8 8 8 9 9 9 9 9 9 10 10 9 9 8 7 6 6 5
6 7 7 7 7 7 6 6 4 4 5 5 4 4 4 4 4 4 4 4 4 4 4 6 7 8 8 8 8 9 9 8 8 8 9 9 9 9 8 6 5 5 5
7 7 7 7 7 7 5 5 5 5 5 5 5 4 4 4 3 3 4 4 4 4 4 5 6 6 7 7 8 8 8 8 8 8 8 8 8 8 8 7 6 5 5
7 7 7 8 7 6 5 6 5 5 5 5 5 4 4 4 3 3 4 4 4 5 4 5 5 5 6 6 7 7 7 7 7 7 7 7 8 8 8 7 6 6 5
7 8 8 6 6 6 6 5 5 5 5 5 5 4 4 3 3 4 4 4 4 4 5 5 5 5 5 6 6 6 6 6 6 6 6 6 6 6 6 6 6 5 5

GFSGL_250_rhum_027.txt.gz
RH
72 82 89 93 95 85 83 90 100 100 92 89 69 54 43 37 28 17 11 9 7 6 6 6 7 7 7 6 6 6 6 6 6 6 6 7 8 10 11 12 14 12 13
92 94 98 98 94 92 90 91 92 81 72 57 33 29 24 18 13 9 7 6 6 6 7 7 7 8 8 8 7 7 7 7 7 7 7 6 6 7 8 10 12 12 11
97 100 98 91 79 76 88 75 65 48 31 22 19 17 14 12 8 7 6 6 6 5 5 4 4 5 7 8 8 8 8 7 7 8 8 7 7 7 7 8 9 10 10
88 88 81 78 78 78 68 52 30 20 18 16 13 11 7 6 6 6 6 4 3 3 3 3 4 4 5 7 8 9 8 8 8 8 8 8 8 7 7 7 8 9 10
62 60 70 74 66 57 38 22 18 15 13 12 9 7 6 6 6 4 4 4 3 3 3 4 4 4 4 4 5 6 8 8 8 8 9 9 8 8 7 7 8 9 9
66 66 65 64 39 24 19 17 15 14 12 8 6 6 6 4 4 4 4 4 4 4 3 3 4 4 4 4 4 4 5 6 8 8 9 9 9 9 9 8 8 9 10
56 42 38 27 19 17 15 14 13 10 7 6 6 5 4 4 5 5 5 4 4 4 4 4 4 4 4 4 4 4 4 4 6 8 10 10 9 9 10 10 9 9 10
34 27 18 16 15 14 12 10 7 6 6 5 4 4 4 4 6 5 5 4 4 4 5 6 6 5 5 5 5 5 5 5 5 6 8 8 9 9 10 10 10 10 10
20 16 15 14 13 10 8 6 6 6 4 4 4 4 5 5 5 5 5 4 4 4 5 6 6 5 5 5 5 5 6 6 6 5 6 6 7 8 8 9 9 9 9
14 14 13 11 8 6 6 6 5 4 4 5 5 5 5 5 5 4 4 4 4 4 4 5 5 5 5 6 6 6 6 6 6 6 6 6 6 6 6 6 6 6 6
12 11 9 7 6 6 5 4 4 4 5 5 5 5 5 5 4 4 4 4 4 4 4 5 5 5 5 6 6 6 7 7 7 7 7 7 7 7 7 7 7 7 6
10 8 6 6 5 4 4 4 5 5 5 5 6 5 5 4 4 4 4 4 4 4 4 5 5 5 6 6 6 7 7 7 7 7 7 7 6 6 6 6 6 5 5
7 6 5 5 4 4 4 5 5 6 6 6 5 5 4 4 4 4 4 4 4 4 4 4 4 5 6 6 7 7 7 8 8 8 8 8 8 6 5 4 4 4 4
6 5 4 4 4 4 5 5 6 6 6 5 5 5 4 4 4 4 4 4 4 4 4 4 4 5 6 6 7 8 8 9 9 8 8 8 6 5 6 6 6 5 4
4 4 4 4 4 5 5 5 5 6 5 5 5 5 5 4 4 4 4 3 2 2 3 4 4 5 6 6 8 8 9 10 9 8 7 5 6 8 7 6 5 4 3
4 4 4 5 5 6 6 6 5 5 5 5 5 5 4 4 4 4 3 2 2 2 3 3 4 5 6 6 7 8 9 10 9 7 6 7 9 8 7 5 5 5 5
4 4 5 5 6 6 6 6 5 6 6 5 5 5 5 5 4 3 3 3 2 3 3 3 3 4 5 5 6 7 8 9 7 6 8 9 10 8 6 5 5 5 5
5 5 5 6 6 6 6 6 6 6 6 6 5 5 4 4 3 3 3 3 3 4 4 4 4 4 4 4 5 6 6 7 6 7 9 10 11 8 6 6 6 5 5
5 5 6 6 6 6 6 6 6 6 5 5 5 4 4 4 4 3 4 3 3 4 4 5 5 4 4 4 5 5 6 6 7 9 10 11 11 8 8 8 7 5 5
5 6 6 6 6 6 6 6 6 6 6 4 4 4 5 4 4 4 4 4 4 4 4 5 6 6 6 5 5 5 6 6 7 10 10 10 10 9 8 8 8 6 5
6 6 6 6 6 6 6 7 7 5 4 4 5 5 5 5 4 4 4 4 4 4 4 5 5 6 7 7 7 7 6 7 9 10 10 10 9 8 8 8 8 8 7
6 6 6 6 7 7 7 7 5 5 5 5 5 5 5 5 4 4 4 4 4 4 4 4 5 5 7 8 8 8 8 9 10 10 10 10 8 7 8 8 8 9 8
6 6 6 6 7 8 7 5 5 5 5 5 5 5 5 5 5 4 4 4 4 4 5 5 4 5 6 7 8 8 9 9 9 9 9 8 7 7 7 7 7 7 6
7 6 7 8 8 7 6 6 6 5 5 5 5 6 5 5 4 4 4 4 4 4 4 5 5 5 5 5 6 7 8 8 8 8 8 8 7 7 7 7 7 6 6
7 7 8 7 6 5 6 5 6 6 5 5 5 5 5 4 4 4 4 4 4 4 4 4 5 5 5 5 5 6 7 7 7 7 7 7 7 6 6 6 6 6 6
7 8 7 6 5 5 5 6 6 6 5 5 5 5 5 4 4 4 4 4 4 4 4 4 4 5 5 5 5 5 6 6 6 6 6 6 6 5 6 6 5 5 5

GFSGL_250_rhum_030.txt.gz
RH
95 93 80 72 67 66 57 54 56 55 60 57 37 33 26 18 17 17 16 13 11 9 7 6 6 6 6 6 5 5 5 5 6 6 6 6 6 6 6 6 7 8 12
85 73 69 63 69 62 61 59 59 58 45 27 22 20 17 15 14 14 13 11 9 7 6 5 5 4 3 3 3 3 3 3 4 6 7 7 6 6 6 5 5 6 8
70 71 69 65 63 53 53 53 57 35 24 18 16 15 14 13 11 10 8 6 6 5 4 4 3 3 4 4 3 3 3 3 3 4 7 7 7 7 6 6 5 5 6
66 70 63 56 50 45 50 54 29 20 14 13 13 12 10 8 7 6 5 5 4 4 4 4 4 4 4 4 4 4 4 4 4 4 6 7 7 7 7 7 6 6 6
75 66 60 51 54 50 43 25 17 13 12 12 11 8 7 6 6 5 4 4 4 4 4 4 5 5 4 4 4 3 3 4 4 4 4 6 7 8 8 8 8 7 7
67 61 45 49 47 30 19 14 11 10 10 8 6 6 6 5 4 4 4 4 4 4 4 5 4 5 5 5 4 4 3 4 4 4 4 4 6 8 8 8 8 8 8
53 49 38 30 19 14 11 9 9 8 6 6 5 5 4 4 4 4 4 4 4 4 4 4 4 4 5 5 4 5 5 4 4 4 5 4 5 6 9 9 9 9 9
53 44 29 18 14 10 9 8 6 5 5 5 4 4 4 4 5 5 4 5 5 4 4 4 4 4 4 4 4 5 5 6 6 6 5 5 5 6 8 9 9 10 9
39 22 12 9 9 8 7 6 5 5 4 4 4 4 4 5 5 5 5 5 4 3 3 4 4 4 4 4 5 5 5 6 6 5 5 6 6 5 6 8 9 10 9
20 10 9 8 6 5 5 5 4 4 4 4 4 4 5 5 5 4 4 4 4 4 4 4 4 4 4 5 5 5 6 6 6 6 6 6 6 6 6 6 6 7 8
17 9 8 6 5 4 4 4 4 4 4 5 5 4 5 5 4 4 4 4 4 3 4 3 4 4 4 4 5 6 6 6 6 6 6 6 6 6 6 6 6 6 6
10 9 6 5 5 4 4 4 4 5 5 5 5 5 5 4 4 4 4 4 3 3 4 4 4 4 4 5 5 6 6 6 6 7 7 7 7 7 7 8 8 8 7
8 6 6 5 4 4 5 5 5 5 5 6 6 5 5 5 4 4 4 4 4 4 4 3 3 4 5 5 6 6 7 7 7 7 7 8 8 8 8 8 8 8 7
6 5 5 4 4 5 5 5 5 6 6 6 6 5 5 5 4 4 4 4 4 4 3 2 2 3 4 5 6 7 8 8 8 8 8 9 9 10 10 9 9 7 6
5 4 4 4 5 5 5 5 5 6 6 6 6 6 6 5 4 4 4 4 3 3 3 2 3 3 4 5 6 7 8 9 9 10 10 10 10 10 9 6 5 5 6
4 4 4 5 5 6 6 6 6 6 6 5 6 6 5 5 4 4 4 3 3 3 3 3 3 3 3 4 6 7 8 9 10 10 11 11 10 7 6 6 7 7 7
4 4 5 5 6 6 6 6 6 6 6 6 5 5 5 4 4 4 4 3 3 3 3 3 4 4 4 4 5 6 7 8 10 10 10 9 7 6 8 9 8 8 6
4 5 5 6 6 6 6 6 6 6 6 7 6 5 4 4 5 5 4 4 3 4 3 4 4 4 4 4 4 5 5 6 8 8 8 7 7 8 10 10 9 6 6
5 5 6 6 6 6 7 6 6 7 6 6 5 5 6 5 5 5 5 4 4 4 4 4 4 5 6 5 5 5 5 5 6 7 7 7 8 10 10 10 9 7 7
5 6 6 6 7 7 7 7 7 6 5 5 5 5 5 5 5 5 5 4 4 4 4 4 5 5 6 7 7 6 5 5 6 6 7 7 8 10 10 10 9 8 8
6 6 6 7 7 6 7 8 6 5 5 5 5 5 6 6 6 5 5 5 4 4 4 4 5 5 6 6 7 8 7 6 6 6 7 7 9 10 10 10 9 8 9
6 6 7 7 7 7 8 6 5 5 6 6 6 6 5 6 5 5 5 4 4 4 4 4 5 5 5 6 6 8 8 8 8 8 8 8 9 10 10 10 9 8 9
6 7 7 7 7 7 6 5 5 5 5 6 6 6 6 6 6 5 4 4 4 4 4 4 4 5 5 5 6 6 8 9 9 9 9 10 10 10 10 9 8 8 8
8 8 7 7 6 6 5 5 5 5 6 6 6 6 6 5 6 5 5 4 4 4 4 4 5 5 5 5 5 5 6 6 7 8 8 8 8 8 8 8 8 7 6
8 7 7 6 5 5 5 5 5 5 6 7 7 6 6 5 5 5 5 4 4 4 4 4 4 5 5 5 5 5 5 5 6 6 7 7 7 7 7 7 7 6 6
7 7 6 6 5 5 5 5 5 6 6 7 7 6 5 5 5 5 5 4 4 4 3 4 4 4 4 4 5 5 5 5 5 5 6 6 6 6 6 6 5 5 5

GFSGL_250_rhum_033.txt.gz
RH
75 74 78 90 94 86 86 82 72 65 59 54 48 24 16 12 11 11 10 10 9 8 6 5 5 4 4 4 4 3 3 3 3 3 3 4 5 6 6 6 6 5 6
64 71 83 89 89 93 70 55 56 59 54 26 17 12 11 10 9 9 8 7 6 5 5 5 4 4 3 3 3 3 3 3 4 3 3 3 3 3 5 6 7 6 5
75 83 93 78 58 56 55 58 50 33 21 15 11 10 9 8 8 6 5 4 4 4 4 3 3 3 4 3 3 4 4 4 4 4 3 3 3 3 3 4 6 7 7
99 90 69 65 65 54 54 52 46 31 22 12 10 8 7 6 5 5 4 4 3 3 3 3 4 4 4 4 4 4 4 4 4 4 4 3 3 3 3 3 4 6 7
84 74 67 54 59 71 64 51 29 20 10 8 7 6 5 5 4 4 3 3 4 4 4 4 4 4 4 4 5 4 4 4 4 4 3 3 3 3 3 4 5 7 8
63 59 56 54 51 44 32 15 12 10 7 6 5 4 4 4 4 4 4 4 4 4 4 4 4 4 4 4 4 4 3 4 5 5 4 4 3 3 4 4 5 8 9
71 57 46 42 34 15 8 7 6 6 5 5 4 4 3 4 4 4 4 4 4 4 4 4 4 4 4 3 4 4 4 4 5 5 5 5 4 4 4 4 4 7 9
55 41 37 30 15 9 6 5 4 4 4 3 4 4 4 4 4 5 4 4 4 4 4 4 4 3 3 3 4 4 4 4 5 5 5 5 5 4 4 4 4 5 7
44 34 30 20 10 7 7 5 4 4 4 4 4 4 4 4 4 4 4 4 4 4 4 4 4 3 3 4 4 4 4 4 4 5 5 6 6 6 5 4 4 5 5
35 30 25 11 8 6 5 4 4 4 4 4 4 4 5 5 5 5 5 5 4 4 4 4 4 3 3 4 4 4 4 4 5 5 6 6 6 6 6 5 5 5 6
28 23 12 8 6 5 5 4 4 4 4 4 4 5 5 5 5 5 5 5 4 4 4 3 3 3 4 4 4 4 4 5 5 6 6 6 6 6 6 6 6 6 6
21 12 8 6 5 5 4 4 4 4 5 5 5 5 5 5 5 5 5 5 4 4 3 4 4 4 3 3 4 4 5 5 6 6 6 7 7 7 7 7 7 7 7
10 8 7 5 5 4 4 4 5 5 5 5 5 5 5 5 5 4 4 4 4 4 4 4 3 3 3 2 3 4 5 6 6 6 7 7 8 8 8 8 8 8 7
8 7 5 5 4 4 4 5 5 6 5 6 6 6 6 5 5 5 4 4 4 3 3 3 3 3 2 3 3 5 6 6 7 8 8 8 8 8 9 9 9 9 9
7 6 5 5 4 4 5 5 5 6 6 6 6 7 7 6 5 4 4 4 3 3 3 3 3 3 3 3 4 5 6 7 8 8 9 9 10 10 10 9 9 9 9
6 5 5 5 4 5 6 6 6 6 6 6 7 7 6 5 5 4 4 4 4 4 4 4 3 3 3 3 4 5 6 8 9 9 10 10 11 11 11 12 11 10 10
5 5 5 4 5 6 6 7 6 6 6 7 7 6 5 5 4 4 4 5 5 5 4 4 4 4 4 4 4 4 6 7 8 10 10 11 12 12 12 12 10 7 6
5 5 4 5 6 6 7 8 7 7 7 7 6 5 5 5 5 5 5 5 5 5 5 4 4 4 5 5 5 5 5 6 7 9 10 10 11 12 11 8 7 7 8
5 4 5 6 6 7 8 8 8 8 7 6 6 6 6 6 6 5 5 6 6 5 5 4 4 4 5 6 6 6 5 5 6 7 8 8 9 10 8 7 7 9 10
4 4 6 6 7 8 8 8 8 8 6 5 5 6 6 7 7 5 5 6 5 5 5 5 4 5 5 5 7 7 7 7 6 6 7 8 8 8 7 7 7 9 10
4 6 6 7 8 8 8 8 7 6 6 5 5 5 6 7 7 5 5 5 5 5 4 4 4 4 5 5 6 7 8 8 8 7 6 6 7 7 7 7 7 9 10
5 6 7 8 7 7 7 7 6 6 6 6 6 5 6 7 7 6 5 5 5 5 4 4 4 4 4 5 5 6 7 7 8 9 9 8 7 7 7 7 8 9 10
6 6 7 7 7 6 6 6 6 6 7 6 6 6 6 7 7 6 6 5 5 5 4 4 4 4 4 5 5 5 6 6 7 8 9 9 9 9 8 8 9 10 9
6 7 6 6 6 6 6 7 7 7 7 7 6 6 7 6 6 6 6 5 5 5 4 4 4 4 4 4 5 5 5 5 5 6 7 8 9 9 9 9 9 9 8
7 6 6 5 5 6 7 7 7 7 7 7 7 6 7 7 6 6 6 5 5 4 4 4 4 3 4 4 4 4 4 5 5 5 5 6 6 7 8 8 7 7 6
6 6 5 5 6 6 6 6 6 7 7 7 7 6 6 5 5 5 5 5 4 4 4 4 4 3 3 3 4 4 4 4 5 5 5 5 5 5 6 6 6 6 6

GFSGL_250_rhum_036.txt.gz
RH
72 80 74 72 78 69 56 56 50 44 45 40 43 32 23 13 10 8 7 7 6 5 4 4 4 4 3 3 3 3 3 3 3 4 3 3 4 4 4 4 5 5 6
69 74 73 62 52 51 51 50 49 43 40 36 30 24 16 9 9 8 6 5 4 4 3 3 3 3 3 3 3 3 3 3 3 4 3 3 2 3 3 3 4 5 5
63 58 52 56 64 64 55 51 43 47 42 33 26 22 10 8 7 5 4 3 3 3 3 3 3 3 3 3 3 4 3 3 3 4 4 3 3 3 3 3 3 3 4
72 73 82 69 58 65 54 48 46 32 22 14 12 8 7 6 5 4 3 3 3 3 4 3 3 4 4 4 4 4 3 3 3 4 4 4 4 4 4 4 4 3 3
84 73 81 92 71 52 44 38 28 18 12 7 6 5 5 4 4 4 4 4 4 4 3 3 3 3 4 4 4 4 4 4 4 4 4 5 4 4 4 4 5 4 4
99 99 80 69 53 39 32 23 14 8 6 6 4 3 3 4 4 4 4 4 4 4 4 4 4 4 4 4 4 4 4 4 4 4 4 4 4 4 4 4 4 4 4
88 82 67 53 38 22 15 12 7 6 5 4 3 3 3 4 4 4 4 4 4 4 4 4 4 4 3 3 3 4 4 3 3 3 4 3 4 4 4 4 3 4 4
92 68 45 40 26 20 12 7 6 5 4 4 4 4 4 4 4 4 5 4 4 4 5 5 4 4 3 3 3 3 3 3 3 3 3 4 3 4 4 5 4 4 4
66 48 44 32 22 16 9 6 6 4 4 4 4 4 4 4 4 4 4 4 4 4 4 4 4 4 3 3 3 3 3 3 3 3 4 4 4 4 4 5 5 4 4
45 45 36 21 14 9 6 6 5 4 4 4 4 5 4 4 5 4 4 4 4 4 4 4 4 3 3 3 3 3 3 3 4 4 4 4 5 5 5 5 6 5 4
48 39 27 17 9 6 6 5 4 4 4 4 5 5 5 5 5 5 5 4 4 4 4 4 4 4 4 4 4 3 3 4 4 4 4 5 5 5 6 6 6 6 6
41 35 20 10 7 6 5 4 4 4 4 5 5 5 5 5 5 5 5 5 4 4 3 3 3 3 3 3 3 3 3 3 4 4 5 5 6 6 6 6 6 6 6
31 18 10 7 6 6 5 5 4 4 5 5 6 6 5 5 6 5 5 4 4 4 4 4 3 3 3 3 3 2 2 3 4 5 5 6 6 7 7 7 7 7 8
18 10 8 7 6 5 5 5 5 6 5 6 6 6 6 6 6 4 4 4 4 4 4 4 4 4 3 3 3 3 3 3 4 6 6 7 7 7 8 8 8 8 8
11 8 7 6 5 5 4 5 6 6 7 7 6 6 6 6 5 5 4 5 4 4 5 5 5 4 4 3 3 3 3 4 5 6 8 8 8 8 9 8 9 9 9
7 6 6 5 5 5 5 6 6 7 8 6 6 6 6 5 5 5 5 5 5 5 5 5 5 4 4 4 3 4 4 4 5 7 8 9 9 9 10 10 10 10 10
6 6 5 5 5 5 5 6 7 8 8 7 6 5 5 5 5 5 5 5 5 5 5 5 5 5 4 4 4 4 4 4 5 6 8 10 11 11 11 11 11 11 11
5 5 5 5 5 5 6 7 8 7 6 6 5 5 5 5 4 5 5 6 5 5 5 5 6 5 5 5 5 5 5 5 5 6 7 10 11 12 12 13 13 13 12
5 5 5 5 5 6 7 8 8 7 6 6 6 5 6 6 5 5 6 6 5 5 6 5 5 5 5 5 5 6 6 6 5 5 6 8 9 11 12 12 12 12 11
5 5 4 5 6 6 7 7 7 6 6 6 7 7 7 6 6 6 7 6 6 5 6 6 5 5 5 5 5 5 6 7 7 7 6 6 7 8 10 10 11 10 8
4 4 5 6 6 7 7 7 6 6 7 7 7 7 7 7 6 6 6 6 5 5 5 6 5 5 5 5 5 5 6 7 8 8 8 8 7 6 7 8 9 8 8
4 5 6 6 7 7 7 6 6 7 7 6 7 7 7 8 7 7 6 6 5 5 5 5 5 5 5 5 4 5 5 6 6 7 8 9 9 8 7 7 7 7 7
5 6 6 6 7 7 6 6 7 7 6 6 7 7 7 7 7 7 6 6 5 5 4 5 5 5 4 4 4 5 5 6 6 6 6 7 8 9 9 9 8 7 7
6 6 6 6 6 6 6 7 7 7 7 7 7 7 7 6 6 7 6 6 6 5 4 4 4 5 4 4 4 4 4 5 6 5 5 5 6 6 8 9 9 9 9
6 6 6 6 6 6 7 7 7 7 8 7 6 5 5 5 5 5 6 6 5 5 4 4 4 4 4 4 4 4 4 4 5 5 5 5 5 5 5 6 7 8 9
6 6 6 6 6 7 8 7 7 8 7 6 5 5 4 4 4 4 4 4 4 4 4 4 4 4 4 4 4 3 3 4 4 4 5 5 5 5 5 5 5 5 6

GFSGL_250_rhum_039.txt.gz
RH
45 45 44 44 48 56 57 55 56 54 55 49 40 41 39 26 19 18 10 7 6 6 5 4 3 3 3 3 3 3 3 3 3 3 2 2 2 2 3 4 4 4 5
40 44 50 59 61 62 61 62 71 71 52 47 47 45 28 19 13 8 7 6 6 4 3 3 3 3 3 3 3 3 3 3 3 3 3 3 2 2 2 3 4 4 4
50 55 57 59 61 71 75 75 78 76 55 49 41 25 15 9 7 6 5 5 4 3 3 3 3 3 3 3 3 3 3 3 3 4 4 3 3 3 3 3 3 3 4
60 64 72 82 80 72 80 79 61 51 44 29 16 11 7 6 6 5 4 4 4 4 4 4 4 4 4 4 4 4 4 3 3 3 4 4 4 3 3 3 4 4 4
80 91 89 81 73 65 58 50 41 27 19 12 8 6 6 5 4 4 4 4 4 4 4 4 4 4 4 4 4 4 4 4 3 3 4 4 4 3 3 3 4 5 4
75 76 76 75 69 61 49 31 23 15 11 10 6 6 5 4 4 4 4 4 4 4 4 4 4 4 4 4 4 4 4 4 3 3 3 3 4 3 3 4 4 5 5
89 92 74 63 60 44 30 24 14 10 9 6 6 4 4 4 4 4 4 4 4 4 4 4 4 4 4 4 3 4 4 4 4 3 3 3 3 3 3 4 4 4 4
91 64 61 55 45 29 22 16 11 9 7 6 4 4 4 4 4 5 5 5 5 4 4 5 4 4 3 3 3 3 3 3 3 3 3 3 3 3 3 3 4 4 4
75 63 57 38 29 20 14 10 8 7 6 5 4 4 4 5 5 5 6 5 5 4 5 5 4 4 3 3 3 3 3 3 3 3 3 3 3 4 3 4 4 4 4
64 58 43 26 21 15 11 9 7 6 5 4 4 4 5 5 6 6 6 5 5 5 4 4 3 3 3 3 3 3 4 4 3 3 3 4 4 4 4 4 4 4 5
60 47 34 22 16 10 9 7 6 5 5 4 4 5 6 6 7 6 6 6 5 4 3 3 3 3 3 3 3 3 3 3 3 3 4 4 4 4 4 5 5 5 6
53 36 24 15 10 9 8 6 5 5 5 4 5 6 7 8 6 6 6 5 4 4 4 4 4 4 4 4 3 3 3 3 3 3 4 4 4 5 5 6 6 6 6
49 33 16 11 9 8 6 5 5 5 4 5 6 7 7 7 6 5 4 4 4 4 4 4 4 4 4 4 3 3 3 3 3 3 4 5 6 6 6 6 6 7 7
32 17 11 10 8 6 5 5 5 4 5 6 7 7 7 7 6 4 4 4 4 4 5 4 4 4 4 4 4 3 3 3 3 4 5 6 6 6 7 7 7 7 7
16 12 11 8 6 5 5 5 4 5 6 6 7 7 6 6 5 5 5 4 4 5 5 4 4 5 5 5 4 4 3 3 3 4 6 7 7 8 8 8 8 8 8
13 12 9 6 5 5 5 4 5 5 6 7 6 6 5 5 6 6 6 5 5 6 6 5 5 5 5 5 4 4 4 4 4 4 6 7 8 9 9 9 9 9 10
11 10 6 5 5 4 4 5 5 6 7 6 6 6 6 7 7 7 6 6 5 6 6 5 5 5 5 5 5 5 5 5 5 5 6 7 9 10 10 10 11 11 11
10 7 5 5 4 4 5 5 6 7 7 6 6 6 7 6 6 6 6 6 5 6 6 5 5 5 5 5 5 5 5 5 5 6 5 7 9 11 11 12 12 12 13
7 5 5 4 4 5 6 6 7 7 6 5 6 6 6 6 7 7 7 6 6 6 6 5 5 5 5 5 5 5 6 6 6 6 6 6 7 8 10 12 13 14 14
5 5 5 5 6 6 6 7 6 6 6 6 7 7 7 7 8 8 8 7 7 6 5 5 5 5 5 5 5 5 5 6 6 7 7 7 7 6 8 8 10 13 14
5 5 4 6 6 7 6 6 6 6 6 8 7 7 8 8 8 8 7 7 7 6 6 5 5 5 5 5 4 5 5 5 6 6 7 8 8 8 7 6 7 8 9
6 5 5 6 7 7 6 6 6 6 7 8 8 8 8 7 6 6 6 6 6 6 6 6 5 5 5 5 5 4 4 5 5 5 6 7 8 8 9 9 8 7 6
5 5 6 7 7 6 6 6 5 6 8 8 8 8 7 5 5 5 5 5 6 6 5 5 5 5 5 5 5 5 4 4 5 5 6 6 7 7 8 8 9 9 8
5 6 7 7 7 6 6 5 6 7 9 8 8 8 6 5 4 4 4 5 5 5 5 4 4 4 4 4 5 5 5 4 4 4 5 5 6 6 6 6 7 8 8
6 7 7 7 7 6 5 5 6 7 9 8 8 6 5 5 5 4 4 4 4 4 4 4 4 4 4 4 4 4 5 4 4 4 4 4 5 5 5 6 6 6 6
6 7 7 6 6 5 5 5 6 8 9 8 7 5 5 5 5 4 4 4 4 4 4 4 4 4 4 4 4 4 4 4 4 4 4 4 4 4 5 5 5 5 5

GFSGL_250_rhum_042.txt.gz
RH
57 55 59 64 62 58 56 53 53 52 51 50 48 37 30 24 20 16 12 10 7 6 5 5 4 4 3 3 3 3 3 2 3 4 3 3 3 3 3 2 2 2 3
52 55 55 58 54 52 51 53 52 52 53 51 42 29 20 17 12 9 7 6 5 5 4 4 3 3 3 3 3 3 3 3 3 4 4 3 3 3 3 3 3 3 3
53 53 52 53 51 53 58 65 67 59 56 47 33 18 12 9 8 6 6 5 4 4 3 3 3 3 3 3 3 3 3 3 3 3 3 3 3 3 3 3 3 3 3
50 50 48 57 62 71 80 82 69 61 54 39 18 12 8 7 6 6 5 4 4 4 3 4 4 4 4 4 3 3 3 3 3 3 4 4 4 3 3 3 3 3 3
51 55 64 74 83 85 89 85 71 57 39 18 13 10 8 7 6 5 4 4 4 4 4 4 4 4 4 4 4 4 3 3 3 3 3 4 4 3 3 3 3 3 4
64 70 74 82 84 91 86 76 57 40 21 13 10 9 7 6 5 5 4 4 4 4 5 6 5 4 4 4 4 3 4 3 3 3 3 3 3 3 3 3 3 4 4
74 80 88 94 99 95 76 53 34 20 14 10 10 7 6 5 5 4 4 4 5 5 6 5 4 4 4 4 4 4 3 3 3 3 3 3 3 3 4 4 4 4 4
78 85 95 100 99 72 62 37 22 14 10 10 7 6 5 5 5 4 4 5 6 6 5 6 5 5 4 4 3 3 3 3 3 3 3 3 3 3 3 3 3 3 4
96 95 100 99 74 61 37 25 15 10 10 8 6 6 5 4 4 5 6 6 6 5 5 5 4 4 4 4 3 3 3 2 3 3 3 3 3 3 3 3 4 4 4
93 96 96 68 57 38 26 15 10 10 8 6 6 5 4 4 5 6 7 6 5 5 4 4 4 3 3 4 4 4 4 3 2 3 3 3 3 3 3 3 4 4 4
82 82 62 45 36 24 16 11 10 9 6 6 5 5 5 5 6 6 6 6 6 5 4 4 3 4 4 4 4 4 4 3 3 3 3 3 3 4 4 4 4 4 5
67 56 34 32 24 16 11 10 9 7 6 5 4 5 6 6 6 6 6 5 5 5 5 4 4 4 4 4 4 4 4 4 3 3 3 3 3 4 4 4 4 5 5
57 44 28 23 16 12 10 10 7 6 6 4 5 6 6 7 6 6 5 5 6 6 5 5 4 4 5 4 5 5 4 4 3 3 3 3 3 4 4 5 5 5 6
51 38 24 19 13 10 10 9 6 6 5 6 6 6 7 6 6 5 5 6 6 6 6 5 4 5 5 5 5 5 4 4 3 3 3 3 4 5 6 6 6 6 7
36 23 19 15 11 10 10 7 6 5 6 6 6 7 6 6 5 6 6 5 5 5 5 5 5 5 5 5 5 5 5 4 4 3 3 4 5 6 7 7 7 8 8
20 18 15 12 10 10 8 6 6 5 6 7 7 6 6 5 6 6 6 6 6 6 6 6 6 5 5 5 5 5 5 4 4 4 4 4 6 6 7 8 8 8 9
18 16 13 10 10 9 6 6 5 6 7 7 7 6 6 6 7 6 6 7 7 7 7 7 6 6 5 5 5 5 5 5 5 4 4 4 6 7 8 9 9 9 9
16 12 10 10 9 7 6 5 5 7 8 8 7 6 6 8 8 7 8 8 8 7 7 7 7 6 5 5 5 5 5 5 5 5 5 5 5 7 8 9 10 10 10
12 10 10 10 8 6 6 5 6 7 7 7 7 6 7 9 8 8 8 7 7 6 6 6 7 7 6 5 5 5 5 5 5 5 6 5 6 6 7 8 10 11 12
10 9 9 8 6 6 5 6 7 7 7 7 6 6 8 9 8 8 7 6 5 5 6 6 6 7 7 6 5 5 5 5 5 5 6 6 6 6 6 7 8 10 12
8 9 9 6 6 6 5 7 7 7 7 7 6 6 8 9 9 8 6 5 5 5 5 5 6 6 6 6 5 5 6 5 5 5 5 6 7 7 7 8 7 8 9
8 8 7 6 6 5 6 7 7 7 6 6 6 6 9 10 9 8 6 6 5 5 5 5 5 5 5 5 6 5 5 6 5 5 5 5 6 7 8 8 8 9 8
8 6 5 5 5 6 6 6 6 6 6 6 5 6 9 10 9 7 6 6 6 5 5 5 5 5 5 5 5 5 5 5 5 5 5 5 5 5 6 7 8 9 9
6 5 5 5 5 6 6 5 5 5 5 5 5 6 8 9 9 7 6 6 6 5 5 5 5 4 4 4 5 5 5 4 5 5 5 4 4 5 6 6 6 7 8
5 5 5 5 6 5 4 4 4 5 5 5 5 6 8 8 8 6 6 6 6 5 4 4 4 4 4 4 4 4 4 4 4 5 5 5 4 4 4 5 6 5 6
4 4 5 5 4 4 4 4 4 5 5 5 6 7 8 7 7 6 5 5 5 5 4 4 4 4 4 4 4 4 4 4 4 4 4 4 4 4 4 4 4 5 5

GFSGL_250_rhum_048.txt.gz
RH
53 53 53 52 48 45 41 44 51 60 76 83 75 69 61 44 40 35 26 18 15 12 9 8 7 5 4 4 4 3 3 3 3 4 3 3 3 3 3 3 3 3 3
42 42 45 45 47 42 43 54 60 79 80 77 74 57 51 45 29 21 17 14 10 9 8 6 4 4 4 4 4 3 4 4 4 5 5 4 4 3 3 3 3 3 3
48 47 51 50 51 50 56 59 76 82 78 76 58 55 39 28 21 16 12 10 8 8 5 5 4 4 4 4 4 4 4 5 5 4 5 5 4 3 3 3 3 4 3
66 63 63 62 57 58 64 83 83 83 80 75 66 55 30 22 15 11 9 8 8 5 5 4 4 4 5 5 4 4 4 4 3 4 3 4 4 3 3 3 2 3 3
77 72 70 63 59 62 79 83 81 86 79 68 67 41 22 14 11 10 8 8 6 5 4 4 5 5 5 5 5 4 4 4 4 3 3 3 3 3 3 3 3 2 2
84 83 67 63 62 77 85 90 94 86 74 67 49 21 14 12 11 9 9 7 5 4 5 5 6 6 5 5 4 3 3 3 3 3 3 2 2 3 3 2 3 2 2
89 77 67 66 75 92 98 98 98 80 67 37 22 14 12 11 9 9 8 6 5 5 6 6 6 5 5 4 4 3 3 3 3 3 2 2 2 2 3 2 2 2 2
86 73 75 76 93 94 98 100 84 68 44 22 14 12 11 9 8 8 6 5 5 6 7 6 5 5 4 5 4 3 3 3 3 3 3 3 3 3 3 3 2 2 2
83 81 79 93 90 93 98 83 66 36 23 14 12 11 9 8 8 7 6 5 6 6 6 5 5 5 5 4 4 4 3 4 3 3 3 3 3 3 3 2 2 3 3
88 82 86 86 97 95 83 63 34 23 19 13 11 10 8 8 8 6 6 6 7 6 6 5 5 6 5 5 5 4 3 3 3 4 4 3 3 3 3 2 2 3 3
83 78 85 92 98 86 56 31 22 17 14 12 11 9 8 8 7 6 6 7 7 7 6 5 6 5 5 6 6 5 4 4 4 4 4 4 4 4 3 3 3 3 3
75 80 93 95 81 54 39 28 28 15 11 11 9 8 8 8 6 6 6 8 8 7 6 6 7 6 6 6 6 5 5 4 4 4 4 4 4 3 3 3 3 3 4
81 99 93 78 50 36 30 22 17 13 12 10 9 8 8 7 6 6 7 8 8 8 7 7 7 7 6 5 6 6 5 5 4 4 4 4 4 3 3 3 3 3 4
100 90 70 46 38 33 23 14 11 11 10 9 8 8 8 6 6 6 7 8 8 8 7 8 8 8 5 4 4 5 6 5 4 4 4 4 4 4 3 3 3 4 4
89 67 48 41 29 19 16 13 12 10 9 8 8 8 6 6 6 7 8 8 8 8 7 9 9 8 5 5 5 5 6 5 5 5 4 5 5 4 3 4 4 5 5
72 52 41 26 17 12 11 11 10 8 8 8 8 6 6 6 6 7 8 8 8 7 7 9 10 8 5 5 5 5 6 6 5 5 5 5 5 4 4 4 5 6 6
49 38 24 17 13 12 11 9 8 8 8 8 7 5 5 6 7 6 7 8 8 7 7 9 10 7 6 5 5 5 6 6 6 5 5 5 5 5 4 4 5 6 6
34 24 17 13 12 10 10 8 7 8 8 6 6 6 6 6 6 6 6 7 7 7 7 9 10 8 6 6 5 5 5 6 6 5 5 5 5 6 5 5 5 6 7
20 13 12 12 11 9 8 7 7 7 6 6 6 6 6 6 5 5 6 6 6 7 7 9 10 9 6 6 6 5 5 5 5 6 5 5 5 6 6 6 6 6 8
13 13 11 10 8 8 7 7 6 5 5 6 6 6 6 6 6 6 6 6 6 7 8 10 11 9 6 6 6 5 5 5 5 5 6 5 6 6 6 6 6 6 7
11 11 9 8 7 7 7 5 5 5 6 6 6 6 6 6 6 6 6 6 6 7 8 10 10 9 7 6 6 5 5 5 5 5 5 6 6 6 6 6 7 7 7
9 8 7 7 6 5 5 5 5 6 6 6 6 5 6 6 6 6 6 6 6 8 9 10 10 9 7 6 5 5 5 5 5 5 5 5 6 6 6 6 6 7 8
7 6 6 5 5 5 5 6 6 6 6 5 5 5 6 6 6 7 6 6 7 9 9 9 9 8 7 6 5 5 5 5 5 5 5 5 5 5 6 6 6 6 6
6 5 4 5 5 5 6 6 5 5 5 5 6 6 6 7 7 8 7 6 7 9 9 8 8 7 6 6 5 5 5 5 5 5 5 4 5 5 5 5 6 6 6
4 4 5 5 5 5 5 5 5 5 5 6 7 7 7 7 8 8 6 6 7 7 7 7 7 6 6 6 5 5 5 5 5 5 5 5 4 4 5 5 5 6 6
4 5 5 5 4 4 4 4 5 6 6 6 7 7 7 7 7 7 6 6 6 6 6 6 6 5 5 5 5 5 5 5 5 5 5 4 4 4 4 4 5 5 5

GFSGL_250_rhum_051.txt.gz
RH
46 53 70 73 77 77 72 64 68 64 60 59 58 60 68 74 77 63 57 39 29 24 17 14 11 8 6 6 5 4 4 3 3 4 4 4 4 3 3 3 4 3 3
55 56 62 75 84 81 69 68 71 65 65 60 63 72 79 86 70 59 54 46 24 15 13 11 8 7 7 5 4 4 4 4 4 4 5 4 4 4 4 3 4 4 4
58 54 64 81 83 80 69 75 74 71 61 61 71 82 89 77 67 53 24 17 14 12 10 8 7 7 5 4 4 4 5 5 4 4 5 4 4 3 3 3 3 3 3
57 64 70 84 82 74 77 80 78 66 60 71 84 96 84 67 48 31 18 12 12 10 8 7 7 5 4 4 5 5 5 4 4 3 3 3 3 3 3 3 2 2 2
58 65 74 79 83 81 85 83 71 62 71 84 96 84 66 48 28 15 12 10 9 8 7 7 6 5 5 6 6 5 4 4 3 3 3 3 3 3 3 3 2 2 2
66 71 71 88 88 84 87 80 67 72 82 97 86 65 46 29 18 11 10 9 8 7 7 6 5 5 6 6 5 4 4 4 3 3 3 2 2 3 3 3 2 2 2
71 72 87 91 87 89 81 74 72 83 98 87 70 46 26 15 12 10 9 8 8 7 6 5 5 6 6 6 4 4 4 4 4 4 3 3 3 3 3 3 2 2 2
78 87 85 90 92 82 75 73 79 95 87 76 52 30 17 12 11 9 8 8 8 7 6 5 6 6 6 5 4 5 4 4 4 4 4 3 3 3 3 3 3 3 2
87 81 85 87 75 75 75 80 91 86 82 52 29 15 12 11 9 8 7 8 7 6 5 6 6 7 6 5 6 6 5 5 5 5 4 3 3 4 3 3 3 3 3
78 88 79 75 77 78 82 92 93 81 46 25 16 12 11 9 9 8 8 8 6 5 5 6 7 6 5 5 6 6 5 5 5 5 4 4 4 4 4 4 3 3 3
84 79 75 74 82 89 93 90 80 41 28 18 14 12 10 8 7 7 7 7 6 6 6 7 7 6 5 6 7 6 4 4 5 5 4 4 4 4 4 4 3 3 3
76 70 74 86 88 90 91 70 35 22 15 13 12 10 9 8 8 7 7 6 6 6 6 7 7 6 5 7 7 6 4 4 4 5 4 4 4 4 4 4 3 3 3
77 75 84 90 95 93 57 31 25 17 13 11 9 8 8 8 8 7 6 6 6 7 7 7 7 6 6 8 8 6 4 4 4 5 5 4 4 4 4 4 3 3 3
83 97 100 100 86 53 31 20 15 12 12 9 9 8 8 7 7 6 6 6 6 7 6 6 7 6 6 9 9 5 4 4 5 6 5 4 5 4 4 4 3 3 3
100 100 96 69 42 26 22 16 13 11 9 8 8 8 8 7 6 5 6 6 6 6 6 6 6 6 7 9 10 6 4 4 5 5 6 5 5 4 4 4 3 3 4
95 84 53 32 26 18 13 12 10 9 8 7 7 7 7 6 5 6 6 6 6 6 6 6 6 7 7 9 11 7 5 5 5 5 6 6 5 5 4 4 4 4 4
74 49 27 22 16 13 12 10 8 8 8 8 7 6 5 5 6 6 6 6 6 6 6 6 6 7 7 9 10 8 5 5 5 5 5 6 5 5 5 5 4 4 4
39 27 22 15 12 11 10 9 8 8 8 7 6 5 5 6 6 6 6 6 6 6 6 6 6 7 8 9 10 8 6 5 5 5 5 5 6 6 5 5 5 4 5
21 16 14 13 10 9 9 8 7 7 6 5 5 6 6 6 6 6 6 6 6 6 6 6 7 7 8 9 9 8 7 6 5 5 5 5 6 6 6 5 5 5 5
13 11 10 9 9 8 8 7 6 5 5 6 6 6 6 6 5 5 6 6 6 7 7 7 7 8 9 9 9 8 7 6 5 5 5 5 6 6 6 6 5 6 5
10 10 8 8 7 7 7 6 5 5 6 6 6 5 5 5 5 6 6 7 7 8 8 8 7 9 10 10 9 8 6 6 6 5 5 5 5 6 6 6 6 6 6
8 8 7 7 6 6 5 5 6 6 5 5 4 5 5 6 6 7 7 8 8 8 9 8 7 8 10 9 8 8 6 6 6 6 5 5 5 5 6 6 6 6 6
8 8 6 6 5 5 5 6 5 4 4 5 5 5 6 6 7 7 7 8 8 8 8 8 7 8 8 8 7 7 6 6 6 6 6 6 5 5 6 6 6 6 6
6 6 5 4 5 5 5 4 4 4 5 6 6 6 6 6 6 6 6 7 7 8 8 8 8 7 6 6 7 6 6 6 5 6 6 6 6 5 5 5 6 6 6
5 5 5 5 5 4 4 4 4 5 5 5 5 5 4 4 4 4 5 6 6 7 7 7 7 6 6 6 6 6 6 6 5 6 6 6 6 6 5 5 5 5 5
4 5 5 4 4 4 4 5 4 4 4 4 4 3 3 3 4 4 4 4 5 6 6 6 6 6 6 5 5 5 5 5 5 5 5 6 6 6 6 5 5 5 5

GFSGL_250_rhum_054.txt.gz
RH
45 47 50 56 54 59 54 52 64 72 75 78 74 72 76 69 65 68 70 68 72 56 42 31 19 14 11 8 7 6 4 4 5 4 4 4 4 4 4 4 4 4 4
67 66 69 75 82 74 57 62 70 76 73 72 74 76 66 68 70 73 78 78 52 40 31 19 13 11 9 7 6 5 5 5 4 4 4 4 4 4 4 4 3 4 4
89 83 70 73 73 58 61 70 74 68 71 76 69 69 73 74 77 91 79 50 39 32 18 13 10 9 7 6 5 5 4 4 4 4 5 4 4 4 3 3 3 3 3
66 62 64 59 54 59 68 72 65 70 72 65 67 74 72 93 98 81 49 39 27 18 13 10 8 7 6 5 6 4 4 4 5 5 4 3 3 3 3 2 2 2 2
61 60 54 53 64 68 74 69 69 70 66 66 74 79 94 90 75 52 37 26 15 12 10 8 7 6 6 6 5 4 5 6 6 5 3 3 3 3 3 3 2 2 2
57 54 62 65 68 75 72 69 66 63 68 77 82 91 90 73 47 33 20 13 12 10 8 8 6 6 7 5 5 5 5 5 5 4 4 3 3 3 4 3 2 2 2
57 65 68 73 78 71 70 65 61 71 80 87 94 83 72 45 30 19 13 11 10 8 8 7 7 7 5 5 5 6 7 6 4 5 4 4 4 4 3 3 3 3 2
71 74 76 77 75 67 67 64 71 77 95 91 88 60 38 30 17 13 11 9 8 7 7 7 7 6 5 5 6 6 6 4 4 5 5 4 4 4 4 3 3 3 3
75 80 75 73 73 67 68 72 74 93 87 76 63 43 28 18 13 11 9 8 8 7 7 7 6 5 6 6 6 6 6 4 6 6 5 4 4 4 4 3 3 3 3
82 77 79 76 76 70 70 73 88 86 80 65 39 26 17 12 11 9 9 8 7 7 6 6 5 5 6 6 6 6 5 4 6 5 4 4 4 4 4 4 3 3 3
80 80 80 77 66 76 75 85 85 89 62 35 25 17 12 10 9 9 8 7 7 6 5 5 6 6 6 6 6 6 5 5 7 5 4 4 4 4 4 4 4 4 4
70 72 70 68 72 71 82 91 86 51 29 22 16 11 10 8 9 8 7 7 6 5 5 5 6 6 6 5 5 5 5 6 8 4 4 4 4 4 4 4 4 4 3
68 70 63 69 73 82 84 79 37 24 17 14 10 8 8 8 8 8 7 6 5 5 6 6 6 6 6 5 5 5 5 7 8 5 5 4 4 4 4 4 4 4 3
68 66 73 70 82 90 68 30 26 18 12 10 9 8 8 7 7 6 6 5 5 6 6 6 6 6 6 6 5 5 6 7 7 4 5 4 4 5 4 4 4 4 3
75 75 75 79 84 53 27 23 17 14 9 8 7 7 7 7 7 6 6 6 6 6 6 6 6 6 6 6 6 6 6 8 8 5 5 4 4 5 4 5 4 4 3
72 73 77 69 40 25 18 15 13 11 10 8 7 6 6 6 5 6 6 6 6 6 6 6 6 6 6 6 6 6 7 8 8 6 5 5 4 4 5 5 4 4 3
72 73 56 34 22 16 13 10 10 10 10 8 7 6 5 5 6 6 6 6 6 6 6 6 6 6 6 6 6 6 7 8 9 7 5 5 4 4 4 5 4 5 4
58 41 25 18 15 13 11 9 9 8 8 8 6 5 6 6 6 5 5 5 6 6 6 7 7 7 7 7 6 7 8 9 9 7 5 5 4 4 4 5 5 5 5
32 18 17 14 12 10 9 8 8 7 6 5 6 6 6 6 5 5 5 6 6 6 7 8 8 8 8 8 7 8 9 10 9 7 5 4 4 4 5 5 5 5 5
16 14 11 10 8 8 8 7 7 6 6 6 6 6 5 5 5 5 6 6 7 7 8 8 8 9 9 9 7 8 10 10 9 7 6 5 4 5 5 5 5 5 5
10 9 9 8 8 7 7 5 5 5 6 6 5 4 4 5 6 6 6 6 6 7 7 8 8 8 9 8 7 7 8 10 8 7 6 5 5 5 5 5 5 6 5
8 7 7 7 7 6 5 5 5 5 5 4 4 5 5 5 5 5 5 5 6 6 6 6 7 8 8 8 8 7 7 8 8 7 6 5 5 5 5 5 5 6 6
7 7 7 6 5 5 5 5 5 4 4 4 4 5 5 5 4 4 4 4 5 5 5 5 6 8 8 8 8 7 6 7 7 7 6 6 5 5 5 5 5 5 6
6 6 5 5 4 5 5 5 4 4 4 5 4 4 4 3 3 3 4 4 4 4 4 4 5 6 7 7 7 7 6 6 7 6 6 6 6 6 6 6 6 5 5
5 4 4 4 4 4 4 4 4 5 5 4 4 3 3 3 3 3 3 4 4 4 4 4 4 5 5 6 6 6 6 6 6 6 6 5 5 6 6 6 6 6 5
4 4 4 4 4 3 3 4 4 4 3 3 2 2 3 3 3 3 3 3 3 3 4 4 4 4 4 5 5 5 5 5 5 5 5 5 5 5 6 6 6 6 6

GFSGL_250_rhum_057.txt.gz
RH
44 46 54 56 73 66 54 48 50 52 60 60 64 65 61 62 64 65 78 80 74 80 68 50 35 24 17 12 8 7 6 5 4 5 5 4 4 4 3 3 3 3 4
63 67 57 66 58 52 56 48 53 62 64 66 66 60 64 65 67 71 75 72 80 66 45 33 21 15 11 9 7 6 6 5 5 5 5 4 4 4 4 4 4 3 4
66 63 59 63 66 58 52 62 68 63 63 63 61 64 64 64 71 72 77 84 69 42 28 20 15 11 9 8 6 6 6 5 5 5 4 4 4 4 4 4 4 3 2
69 66 79 67 56 53 64 66 59 64 64 62 65 67 67 68 66 76 84 56 35 25 20 16 12 10 8 7 6 6 6 6 5 4 4 4 4 4 4 3 3 3 3
85 76 66 57 54 68 63 64 70 65 61 66 67 70 69 65 82 79 44 30 22 18 14 11 9 8 7 7 6 6 6 5 4 4 4 5 5 4 3 3 4 3 2
69 59 58 64 70 66 66 72 71 68 65 67 70 69 67 85 84 47 29 25 19 13 10 9 8 7 7 7 6 6 4 4 4 4 5 5 4 3 4 4 4 4 3
64 73 80 71 65 64 75 80 73 65 68 77 71 71 83 76 53 36 24 16 12 10 9 8 8 7 7 6 5 4 4 5 5 6 5 5 4 4 4 4 3 3 3
78 81 69 64 63 73 80 86 78 80 76 68 72 77 69 53 32 21 15 12 10 8 8 7 7 6 6 5 4 4 4 5 5 5 6 6 4 5 5 3 3 3 4
79 66 65 68 75 93 93 72 73 66 65 72 67 58 42 29 22 15 12 10 9 8 7 7 6 5 5 5 5 5 5 5 5 5 5 5 4 6 4 3 3 3 3
64 64 70 77 93 95 70 63 65 68 71 72 69 45 29 20 16 10 9 8 8 7 7 6 5 5 5 5 6 6 5 5 5 5 5 5 6 6 4 3 3 4 3
63 73 76 85 96 74 61 64 70 74 76 78 54 30 19 14 10 8 8 8 7 7 6 5 5 5 6 6 6 6 6 5 5 5 5 4 6 4 4 4 4 4 4
72 76 80 85 75 69 67 76 76 72 63 36 27 19 13 10 8 8 8 7 6 5 5 5 6 6 6 6 6 6 6 6 5 5 5 5 6 4 4 4 4 4 4
74 75 74 71 72 69 80 78 75 44 26 22 17 12 9 9 8 8 8 6 5 5 6 6 6 6 6 6 6 6 6 6 6 6 6 6 7 4 4 4 4 4 4
76 74 75 74 67 78 75 64 43 30 20 15 11 9 8 9 8 7 6 6 6 6 6 6 5 5 5 6 6 6 6 6 5 6 6 7 7 4 4 4 4 4 4
72 77 73 66 73 72 56 33 23 20 14 12 10 8 7 8 7 6 6 6 6 6 5 5 5 6 6 6 6 6 6 6 6 6 7 7 7 4 4 4 4 4 4
77 74 63 69 66 47 29 19 16 13 11 10 8 7 7 5 5 6 6 6 5 6 5 6 6 6 6 7 7 8 8 7 6 6 7 8 6 4 4 4 4 4 4
73 66 67 63 49 30 19 15 11 10 10 9 6 6 5 5 5 6 6 5 5 6 6 7 7 7 7 8 8 8 8 8 7 7 8 8 6 4 4 4 4 4 4
63 62 52 34 22 15 12 10 8 8 9 8 5 5 5 6 6 5 5 5 5 6 6 7 7 7 7 8 8 8 9 8 7 7 8 8 7 5 4 4 4 4 5
56 42 25 17 13 10 8 8 7 6 6 6 5 5 5 5 5 4 4 5 6 6 6 6 6 6 6 7 8 8 9 9 8 7 9 8 7 5 4 4 4 4 5
36 21 16 12 9 8 7 6 5 4 4 5 6 6 5 4 4 4 5 5 5 6 6 6 5 5 6 6 7 8 9 9 8 7 8 8 7 5 5 4 4 4 5
18 15 11 8 7 6 5 4 4 4 5 5 5 4 4 4 5 5 4 4 4 4 4 4 5 5 5 5 6 7 8 9 9 7 7 8 7 5 5 5 5 4 5
13 10 8 7 6 5 4 4 4 4 4 4 4 4 4 4 4 4 4 3 3 3 4 4 4 5 5 5 5 6 7 8 8 7 7 7 7 6 5 5 5 5 4
9 8 7 5 4 4 4 5 4 4 4 3 4 4 4 4 3 3 3 3 3 3 4 4 4 4 4 4 5 5 6 6 7 7 6 7 7 6 5 5 5 5 5
8 6 4 4 4 4 4 4 4 4 3 4 4 4 3 3 3 3 3 3 3 3 3 4 4 4 4 4 4 4 5 5 6 7 6 6 6 6 6 5 5 5 5
6 4 4 4 4 4 4 3 3 3 4 4 3 3 2 2 3 3 3 3 3 3 3 3 3 4 4 4 4 4 5 5 5 5 6 6 6 6 6 5 5 5 5
4 4 4 4 4 3 3 3 3 3 3 2 2 2 2 2 2 2 3 3 3 3 3 3 3 3 4 4 4 4 4 5 5 5 5 5 5 5 5 5 5 5 5

GFSGL_250_rhum_063.txt.gz
RH
40 38 45 46 44 40 40 43 53 57 64 68 66 62 59 59 60 65 74 81 84 86 88 88 80 66 53 39 27 18 14 12 10 8 7 6 6 5 5 4 4 4 4
46 46 41 36 35 50 75 86 62 57 61 70 67 60 63 68 71 80 86 86 82 83 78 71 58 44 34 24 16 12 9 8 7 7 7 6 5 4 5 4 3 3 3
52 51 48 66 76 76 66 57 54 57 64 62 61 70 77 77 82 80 74 79 80 70 62 50 41 29 19 14 11 9 8 7 6 6 6 5 4 4 4 3 3 3 3
61 65 70 71 72 55 54 56 61 62 57 64 77 83 80 80 79 72 76 72 70 64 50 36 26 19 14 12 9 8 7 6 6 5 4 4 4 4 4 4 3 4 3
65 61 66 64 54 60 65 63 58 58 73 85 80 80 80 77 73 77 69 70 63 53 37 25 18 14 11 9 8 7 6 6 5 4 4 4 4 4 4 4 5 4 4
63 64 58 63 64 60 60 57 70 86 90 78 81 82 74 72 75 69 65 69 54 35 24 16 12 10 8 8 7 6 6 5 4 4 4 4 4 5 4 4 5 4 4
60 66 62 61 58 65 75 86 92 85 80 84 79 74 70 71 68 68 65 47 34 23 15 11 10 8 8 7 6 5 5 5 5 5 5 4 4 4 5 4 5 4 4
67 64 66 71 85 90 87 88 81 86 89 78 80 68 70 75 65 56 45 29 21 15 11 9 8 8 7 6 5 5 5 6 6 5 4 4 4 4 4 4 4 4 4
70 79 86 91 94 88 89 82 89 86 78 82 69 74 76 62 54 46 31 22 16 11 10 9 8 7 5 5 5 5 5 6 5 5 5 5 5 5 5 4 4 4 4
90 91 95 98 96 84 86 91 86 71 78 71 75 74 64 54 49 34 23 17 12 10 9 7 5 5 5 5 5 6 5 5 5 5 6 6 6 6 5 5 4 4 4
95 99 97 94 83 84 88 87 68 75 74 74 74 62 49 41 32 21 16 12 10 9 7 5 5 5 6 6 6 5 5 5 5 6 6 7 6 6 6 6 5 4 4
100 94 91 86 80 86 90 76 77 79 75 78 63 50 42 28 20 16 12 10 8 6 5 5 5 6 6 6 5 5 5 5 6 6 6 7 7 7 7 7 6 5 5
91 92 85 80 85 92 85 78 78 75 78 70 54 39 28 22 15 11 10 8 6 5 6 6 5 6 6 5 5 5 6 6 6 6 6 6 6 7 7 7 6 5 6
93 83 81 89 99 90 76 72 71 78 70 49 39 26 19 16 12 10 8 6 5 6 6 6 5 5 5 5 5 5 6 5 6 6 6 6 6 7 7 7 6 6 6
82 81 87 88 84 79 75 75 77 75 56 42 31 20 14 12 10 7 6 5 6 6 6 5 5 5 5 5 6 6 5 5 5 5 6 6 6 7 8 8 7 6 6
79 87 82 83 79 74 76 82 80 66 45 31 23 15 10 8 6 5 6 6 6 5 5 4 4 4 5 5 5 5 5 4 4 4 5 6 6 7 8 8 7 7 7
91 75 79 74 71 78 80 62 38 36 30 22 15 11 8 5 5 4 5 5 5 5 5 4 4 4 4 4 4 4 4 4 4 4 5 5 6 6 8 8 7 7 6
74 71 68 69 74 66 51 34 26 18 13 13 12 8 6 5 5 5 4 5 5 4 4 4 4 4 4 3 3 3 4 4 4 4 5 5 5 6 8 8 7 7 6
70 68 71 74 61 48 29 24 20 14 11 8 6 5 5 5 5 4 4 4 4 4 4 4 4 3 3 3 3 3 4 4 4 4 5 5 5 6 7 8 7 6 6
70 70 68 55 40 28 23 18 14 10 8 6 4 4 5 5 4 4 3 3 4 4 3 3 3 3 3 3 3 3 4 4 4 4 4 4 5 6 7 8 7 6 6
73 66 51 32 25 22 18 13 10 7 5 4 4 5 4 4 3 3 3 3 3 3 3 3 3 3 3 3 3 4 4 4 4 4 4 4 5 5 6 7 7 6 6
58 42 31 25 20 16 11 9 6 5 4 4 5 4 3 3 3 3 3 3 2 2 3 2 3 3 3 3 3 3 3 4 4 4 4 4 4 5 6 6 6 6 6
38 28 21 17 14 10 8 6 4 4 4 4 4 3 3 3 3 3 2 2 2 2 2 2 3 3 3 3 3 3 3 4 4 4 4 4 4 5 5 6 6 6 6
24 19 15 12 10 8 6 4 4 4 4 3 3 2 2 2 2 2 2 2 2 2 2 2 2 2 2 2 2 3 3 3 4 4 4 4 4 5 5 5 6 5 5
17 14 11 9 7 5 4 4 4 4 3 3 2 2 2 2 2 2 2 2 2 2 2 2 2 3 3 2 2 3 3 3 3 4 4 4 4 4 4 5 6 6 5
14 10 8 6 5 4 4 4 4 3 3 2 2 2 2 2 2 2 2 2 2 2 2 2 2 2 3 3 2 3 3 3 3 4 4 3 4 4 4 4 5 6 5

GFSGL_250_rhum_066.txt.gz
RH
36 41 47 48 50 54 56 52 49 38 45 47 57 62 65 69 75 73 64 63 59 68 68 66 72 77 63 48 36 28 20 14 11 11 9 7 6 6 6 5 4 4 3
44 50 54 56 60 53 47 36 38 52 59 63 64 68 72 71 67 66 66 67 76 74 73 73 80 58 42 32 25 18 12 10 9 8 8 6 5 5 4 4 3 3 3
49 58 56 55 55 52 47 54 58 64 64 64 62 65 63 67 68 68 78 75 72 74 79 84 53 47 38 24 16 12 11 9 8 7 6 5 4 4 4 4 4 4 4
84 72 64 62 62 52 57 62 64 63 70 66 63 65 72 72 80 87 80 74 82 82 83 60 47 32 21 16 12 10 9 8 7 5 5 4 4 4 4 4 4 4 4
82 91 84 70 69 70 62 62 66 73 65 59 68 78 79 84 90 90 78 79 79 86 67 43 30 22 17 12 11 9 8 6 5 5 4 5 4 5 5 4 4 4 3
89 86 81 72 70 65 70 70 76 62 59 74 83 87 81 92 99 82 75 78 86 70 42 33 24 17 12 10 9 7 6 5 5 5 5 5 5 5 4 4 4 4 4
91 92 79 74 73 79 81 79 67 67 79 86 90 81 94 100 90 78 76 83 78 46 34 25 20 13 10 9 6 5 5 5 5 5 5 5 4 4 4 4 5 5 5
88 72 72 82 90 83 78 74 74 79 82 89 82 94 99 94 83 83 85 80 52 36 25 20 14 10 9 7 5 5 6 5 6 6 5 4 4 4 5 5 5 5 5
72 78 88 92 81 80 80 76 78 81 91 83 97 95 88 94 86 84 79 57 38 28 21 14 10 9 8 5 5 6 6 5 5 5 5 5 5 5 5 5 5 6 6
79 90 82 77 83 76 74 78 89 94 87 99 88 83 90 87 87 82 54 33 27 21 15 11 8 6 6 5 6 6 6 5 5 5 5 5 5 5 6 5 6 6 6
79 75 83 80 72 74 83 90 88 88 100 89 84 92 84 82 76 52 34 22 18 14 12 10 6 5 6 6 6 6 5 5 5 5 5 6 6 6 5 5 6 6 6
82 79 74 74 76 83 88 92 86 92 96 86 86 82 82 70 48 32 23 18 14 10 9 8 5 5 6 6 6 5 5 5 5 5 6 6 6 5 5 5 6 6 6
81 80 77 81 86 90 96 89 97 99 94 86 77 71 63 48 45 30 18 13 10 8 7 6 5 5 6 6 5 5 5 5 5 5 5 5 5 4 4 5 6 6 8
82 83 82 89 94 96 92 94 100 92 82 74 68 58 44 41 31 23 18 11 7 6 6 6 5 5 5 5 5 4 5 5 5 5 4 4 4 4 4 5 5 6 8
82 81 87 95 100 95 96 95 93 88 75 69 61 41 28 20 18 14 10 7 5 5 6 6 5 5 4 4 4 4 4 4 4 4 4 4 4 4 4 5 5 6 7
83 91 96 100 92 94 86 92 88 80 80 67 46 29 19 16 12 9 6 5 5 5 5 6 4 4 3 4 4 4 4 4 4 3 3 3 4 4 4 5 5 5 7
94 92 98 88 90 81 80 76 76 81 69 52 34 22 18 13 10 6 5 5 6 5 4 4 4 3 3 3 4 4 3 3 3 3 3 4 4 4 4 4 4 5 7
94 91 86 87 79 75 73 71 58 45 31 27 24 18 13 9 6 5 5 5 5 4 3 3 3 3 3 3 3 3 3 3 3 3 3 4 4 4 4 4 4 5 6
83 89 83 77 71 71 68 58 44 26 19 16 14 12 8 6 5 5 5 4 4 3 3 3 3 3 3 3 3 3 3 3 3 3 3 4 4 4 4 4 4 5 7
90 81 74 69 72 65 56 38 22 19 16 13 9 7 5 5 5 5 4 3 3 3 3 3 2 2 2 2 2 3 3 3 3 3 3 4 4 4 4 4 4 5 6
78 71 72 69 53 49 29 21 18 15 13 9 6 5 4 5 5 4 3 3 3 3 2 2 2 2 2 2 2 3 3 3 3 3 3 4 4 4 4 4 4 5 6
74 69 54 46 41 26 21 17 14 11 8 6 5 4 5 4 3 3 3 3 2 2 2 2 2 2 2 2 2 3 3 3 3 3 3 3 3 4 4 4 4 4 5
59 46 43 31 25 21 16 13 10 7 5 4 4 5 4 3 3 2 2 2 2 2 2 2 2 2 2 2 2 3 3 3 3 3 3 3 3 4 4 4 4 4 5
46 42 28 24 20 15 12 10 7 5 4 5 5 4 3 3 3 2 2 2 2 2 2 2 2 2 2 2 2 3 3 3 3 3 3 3 3 3 4 4 4 4 4
34 26 23 19 14 12 9 6 5 4 5 4 3 3 2 2 2 2 2 2 2 2 2 2 2 2 2 2 2 3 3 3 3 3 3 3 3 3 4 4 4 4 4
25 21 17 13 11 8 6 4 4 4 4 3 2 2 2 2 2 2 2 2 2 2 2 2 2 2 2 2 2 2 2 3 3 3 3 3 3 3 4 4 4 4 4

GFSGL_250_rhum_069.txt.gz
RH
98 100 99 82 58 60 64 63 70 73 70 64 44 42 49 54 54 60 64 55 62 74 79 74 78 72 74 74 66 64 53 34 19 15 12 9 7 5 4 4 3 3 3
100 100 79 64 50 58 66 85 82 78 70 55 57 57 60 64 64 67 61 64 73 78 76 80 72 75 78 72 64 57 33 20 15 12 9 8 5 4 4 4 3 3 3
100 99 72 51 54 62 60 73 68 57 59 55 57 61 71 78 76 70 64 70 76 76 77 72 76 79 74 65 61 37 21 15 11 9 8 6 4 4 4 4 4 4 4
100 83 52 53 64 71 68 60 66 58 57 66 73 79 85 79 71 65 70 75 78 86 80 82 83 77 69 62 38 22 16 12 9 8 5 5 4 5 5 4 4 4 4
73 67 70 71 76 85 100 63 71 72 78 72 76 85 79 71 68 74 78 82 88 90 88 84 77 69 66 38 23 17 13 9 8 5 5 5 5 5 5 5 4 4 3
73 78 87 93 93 94 97 99 95 94 75 79 85 78 72 75 81 78 85 95 98 97 92 81 72 72 42 23 17 14 9 7 5 5 6 5 6 5 5 4 4 4 4
78 80 86 91 94 99 99 89 77 83 88 88 78 72 76 84 80 88 96 94 98 97 86 74 72 42 23 16 14 10 7 6 5 6 6 6 5 5 5 4 4 4 5
79 83 83 88 94 90 86 88 92 98 85 75 72 76 88 86 90 97 93 91 91 87 78 74 40 26 17 13 10 8 6 5 5 6 6 6 5 5 5 5 5 5 5
84 86 91 95 92 94 100 100 94 80 71 67 76 89 88 95 96 95 85 84 84 78 76 46 26 17 14 10 7 6 6 5 6 6 6 6 6 5 5 5 5 5 4
90 90 92 93 98 100 100 95 76 64 65 76 86 90 98 100 97 78 80 79 77 71 41 29 19 14 10 7 5 6 6 6 6 5 5 5 5 5 5 5 5 5 4
93 94 97 100 100 100 95 76 64 70 80 86 98 100 100 92 84 88 85 71 58 31 23 19 17 10 7 5 5 6 6 6 5 5 4 4 5 5 5 4 4 4 3
100 100 100 100 100 93 80 71 71 84 96 98 99 100 94 86 92 87 74 65 37 21 17 14 11 8 5 5 5 6 5 5 4 4 4 4 4 4 4 4 4 4 3
100 100 100 92 83 78 70 72 86 97 97 99 99 91 86 90 78 70 69 49 28 18 14 10 8 6 5 5 5 4 4 4 4 4 4 4 4 4 4 4 4 4 4
98 83 75 70 67 74 80 90 98 97 98 95 82 84 83 71 68 57 34 21 18 15 10 7 5 5 5 5 4 3 4 4 4 4 4 4 4 4 4 3 3 4 4
85 78 79 84 85 87 96 100 97 95 89 84 82 76 69 64 46 28 20 16 12 9 6 5 5 5 5 4 4 3 3 4 4 4 3 3 3 3 4 3 4 4 4
75 79 83 86 95 100 100 99 99 95 89 84 75 67 53 34 22 19 15 12 9 6 5 5 5 5 4 3 3 3 3 3 3 3 3 3 3 3 3 4 4 4 4
97 96 100 100 100 98 100 100 99 98 92 82 75 55 35 22 19 14 12 9 6 5 5 5 4 3 3 3 3 3 3 3 3 3 3 3 3 3 3 4 4 4 4
99 100 100 98 100 100 99 96 95 82 80 74 57 37 24 20 14 11 9 6 5 5 4 4 3 3 3 3 2 2 3 3 3 3 3 3 3 3 3 4 4 4 4
100 100 97 96 98 93 92 87 77 75 61 49 28 22 18 13 10 8 6 6 6 5 4 3 3 3 2 2 2 2 2 3 3 3 3 3 3 3 3 4 4 4 4
97 96 92 91 92 89 78 72 65 50 39 21 18 14 12 11 9 7 6 5 4 4 3 3 3 2 2 2 2 2 2 3 3 3 3 3 3 3 3 4 4 4 4
93 93 86 89 87 76 68 54 43 28 20 17 11 9 8 7 6 5 6 5 4 3 3 3 3 2 2 2 2 2 2 2 2 3 3 3 3 3 3 3 4 4 4
88 86 88 82 72 63 46 38 23 19 16 11 9 8 6 5 5 5 4 3 3 3 3 2 2 2 2 2 2 2 2 2 2 3 3 3 3 3 3 3 4 4 4
89 82 71 65 49 40 31 22 19 14 10 8 7 6 5 4 4 3 3 3 3 2 2 2 2 2 2 2 2 2 2 2 2 3 3 3 3 3 3 3 3 4 4
74 66 54 37 33 24 21 16 12 9 8 6 5 4 4 4 3 3 2 2 2 2 2 2 2 2 2 2 2 2 2 2 2 3 3 3 3 3 3 3 4 4 4
52 36 32 26 23 19 13 10 9 7 5 5 4 4 3 3 2 2 2 2 2 2 2 2 2 2 2 2 2 2 2 2 2 2 3 3 3 3 3 3 3 4 4
35 26 23 20 15 12 10 8 6 5 4 4 3 3 2 2 2 2 2 2 2 2 2 2 2 2 2 2 2 2 2 2 2 2 2 2 3 3 3 3 3 4 4

GFSGL_250_rhum_072.txt.gz
RH
81 84 80 73 81 85 92 100 95 82 56 58 65 74 78 89 93 75 62 57 58 70 78 78 74 74 70 61 67 68 64 58 56 65 45 30 19 14 10 7 5 4 4
45 43 40 57 90 100 100 100 80 69 71 80 95 99 85 73 67 64 71 75 80 82 81 80 81 76 69 70 67 70 65 63 56 42 35 21 14 11 7 5 4 4 4
40 40 58 92 100 100 100 86 91 86 68 83 97 79 54 57 63 80 83 79 76 87 86 84 82 72 69 70 76 67 64 58 46 30 21 15 11 7 5 4 4 4 4
43 92 100 100 100 100 100 100 99 96 99 98 100 100 96 96 94 90 75 77 90 85 78 80 71 71 76 78 73 69 58 54 40 22 16 12 8 5 5 5 5 4 4
77 100 100 100 100 100 100 100 100 100 91 100 99 100 98 98 96 79 80 90 79 72 78 76 76 80 82 79 72 63 55 43 24 16 12 8 5 5 5 5 5 5 4
98 99 100 100 100 100 100 88 89 91 100 97 100 100 99 98 94 96 100 80 70 85 81 80 83 83 79 72 63 64 56 28 17 12 9 5 5 5 6 5 5 5 4
77 81 76 72 72 77 81 87 99 100 100 100 97 99 100 100 100 100 81 72 88 83 84 91 89 76 65 65 67 53 30 19 13 9 6 5 5 6 5 5 4 4 4
57 63 69 74 79 88 97 97 96 97 100 100 100 100 100 96 94 81 77 83 85 91 97 89 76 76 73 60 43 25 18 12 8 6 5 5 5 5 4 4 4 4 4
86 88 92 96 98 100 100 100 100 100 100 100 100 98 85 88 80 82 81 88 94 100 91 79 81 80 66 40 25 18 14 8 5 5 5 5 4 4 4 4 4 4 4
99 97 96 98 100 98 100 100 100 100 100 100 94 87 82 78 82 86 95 88 94 85 76 77 76 69 53 24 18 13 9 5 5 5 6 4 4 4 3 3 4 4 4
100 100 100 100 99 100 100 100 100 98 93 88 88 86 84 86 94 100 96 86 70 72 73 74 67 44 26 22 14 9 6 5 5 5 4 3 4 4 3 3 4 4 4
100 100 99 100 100 100 99 99 100 100 100 98 88 89 89 97 97 97 90 77 78 76 75 67 48 28 21 15 10 6 5 6 5 4 4 3 3 3 3 3 3 3 4
84 87 88 90 97 100 100 100 99 90 88 88 92 95 93 95 94 80 77 81 83 80 72 49 27 21 14 9 6 6 6 5 4 4 3 3 3 3 3 3 3 3 3
74 80 84 87 94 97 95 90 88 89 86 86 87 89 87 80 76 77 84 85 77 63 39 26 19 14 9 6 6 6 5 4 4 3 3 3 3 3 3 3 3 3 3
74 64 75 88 87 86 83 84 86 89 90 86 82 81 80 76 79 86 80 70 49 29 23 16 12 8 6 5 6 5 4 4 3 3 3 3 3 3 3 3 3 3 3
81 84 81 79 83 91 95 98 95 87 87 85 81 77 76 77 76 73 56 36 25 20 15 12 8 5 5 5 5 4 3 3 3 3 3 3 3 3 3 3 3 3 3
86 81 82 91 100 100 98 93 88 91 89 81 78 77 74 67 61 43 29 23 18 15 12 7 6 5 5 4 3 3 3 3 3 3 3 3 3 3 3 3 3 3 3
79 86 93 96 95 96 96 95 92 87 79 81 81 74 66 51 32 26 22 16 14 10 7 6 5 5 4 3 3 3 3 3 3 2 3 3 3 3 3 3 3 3 3
81 91 93 93 93 94 92 83 78 84 88 81 72 56 38 30 24 18 13 11 9 7 6 5 5 4 3 3 3 3 3 2 2 2 3 3 3 3 3 3 3 3 4
87 83 85 88 88 80 77 87 90 81 70 58 40 34 29 23 16 13 10 7 6 6 6 5 4 3 3 3 2 2 2 2 2 2 2 3 3 3 3 3 3 3 4
84 79 82 85 90 96 94 90 76 58 45 36 33 24 18 13 11 9 7 6 6 5 4 3 3 3 2 2 2 2 2 2 2 2 2 2 3 3 3 3 3 3 3
84 92 94 93 94 96 84 58 47 40 36 28 20 16 12 10 7 6 5 5 4 3 3 3 2 2 2 2 2 2 2 2 2 2 2 2 2 3 3 3 3 3 3
94 95 94 94 80 61 49 43 37 29 22 16 12 10 8 6 5 5 4 3 3 2 2 2 2 2 2 2 2 2 2 2 2 2 2 2 2 3 3 3 3 3 3
96 94 79 60 50 45 37 28 23 18 13 10 9 6 5 4 4 4 3 2 2 2 2 2 2 2 2 2 2 2 2 2 2 2 2 2 2 3 3 3 3 3 3
66 56 51 46 39 27 21 18 14 11 9 7 5 4 4 3 3 2 2 2 2 2 2 2 2 2 2 2 2 2 2 2 2 2 2 2 2 3 3 3 3 3 3
53 47 37 28 22 18 15 11 9 7 5 4 4 3 3 2 2 2 2 2 2 2 2 2 2 2 2 2 2 2 2 2 2 2 2 2 2 2 3 3 3 3 3

GFSGL_250_rhum_075.txt.gz
RH
86 92 93 92 83 79 82 85 69 74 80 74 63 72 100 100 96 89 94 74 76 80 66 69 87 85 79 68 70 66 71 65 67 60 56 58 58 50 31 23 14 11 8
68 66 64 64 57 52 46 41 55 73 80 78 49 75 76 75 79 77 76 78 99 100 100 100 96 83 67 71 78 83 78 78 63 49 59 61 52 36 22 15 12 10 6
65 61 56 49 42 38 37 42 69 84 100 90 81 79 72 77 71 69 68 80 96 98 100 95 83 68 82 88 90 84 82 64 52 53 57 53 36 31 15 10 8 7 5
45 38 34 33 31 31 41 58 70 95 98 89 100 100 100 100 100 100 100 100 100 100 98 87 80 89 96 92 88 84 63 54 57 60 49 39 30 19 12 9 6 5 5
41 36 38 40 46 59 74 97 100 100 100 100 100 100 100 100 100 100 99 100 100 100 99 94 97 99 95 94 82 71 65 61 65 58 43 33 22 13 10 7 5 5 6
71 71 71 64 59 92 100 100 100 100 100 94 96 100 100 100 100 100 100 100 100 100 100 99 95 96 90 76 70 68 73 75 72 55 41 31 16 11 6 5 6 5 4
84 97 96 90 91 91 90 92 97 100 100 100 100 100 100 100 100 100 100 100 100 100 100 97 93 92 79 71 66 68 69 70 61 48 38 23 14 9 6 5 5 4 3
99 91 91 95 97 95 94 98 100 100 100 100 100 100 100 96 98 98 100 100 100 100 91 93 88 86 90 70 69 72 69 60 36 24 21 17 10 6 5 5 4 4 3
100 100 100 100 100 100 100 100 100 99 94 95 100 100 100 100 100 100 100 86 89 99 97 94 88 77 76 77 72 66 59 50 30 22 16 10 6 5 6 4 4 4 3
89 100 100 100 100 100 99 99 91 88 88 89 95 95 90 85 83 95 100 94 98 98 90 88 84 80 80 79 70 58 45 34 25 16 10 7 5 5 4 4 3 3 3
74 86 95 97 95 92 88 86 88 84 84 87 84 88 94 96 98 100 96 89 84 86 86 90 86 80 76 71 65 50 35 27 19 11 7 5 5 4 4 3 3 3 3
85 88 86 79 73 71 71 73 77 77 79 86 90 95 100 100 96 97 93 93 90 88 88 85 77 78 72 62 43 34 25 17 12 7 6 5 4 4 4 3 3 3 3
68 66 70 74 81 88 90 88 86 85 85 85 94 96 100 100 98 100 97 96 97 87 78 77 74 62 48 41 30 20 15 10 7 6 6 4 4 3 3 3 3 3 3
65 72 75 80 80 82 85 83 87 92 91 94 100 100 100 98 95 94 91 85 80 80 76 66 50 39 28 21 16 12 9 6 6 6 5 4 3 3 3 3 3 3 3
85 82 71 75 68 70 80 82 83 90 91 94 96 93 91 86 84 81 78 78 76 70 52 44 32 22 19 14 10 7 6 5 6 4 4 3 3 3 3 3 3 3 3
79 83 75 58 54 62 73 74 75 85 92 89 86 86 84 81 74 75 77 73 55 42 33 23 19 16 13 10 7 6 5 4 4 4 3 3 3 3 2 2 3 3 3
71 72 66 73 72 61 73 77 80 97 94 91 86 78 75 73 72 74 59 44 36 28 21 17 14 12 9 7 6 5 4 3 3 3 3 3 2 2 2 2 3 3 3
76 89 97 96 82 78 88 92 88 85 78 69 72 82 84 75 63 50 40 32 24 19 14 11 9 7 6 6 5 4 3 3 3 3 3 3 2 2 2 2 3 3 3
100 99 98 85 77 82 85 84 79 78 73 73 74 70 69 59 47 38 30 21 18 13 10 8 6 6 5 5 4 3 3 2 2 2 2 2 2 2 2 2 3 3 3
100 97 78 63 73 85 86 88 83 78 77 76 74 62 52 40 34 23 19 15 11 9 7 6 5 4 4 3 3 2 2 2 2 2 2 2 2 2 2 2 2 3 3
94 75 63 78 91 88 83 80 82 80 77 65 54 42 38 26 20 16 11 9 8 6 5 5 4 3 3 2 2 2 2 2 2 2 2 2 2 2 2 2 2 3 3
70 66 81 87 76 75 82 82 76 64 55 47 37 28 22 17 12 8 7 6 5 5 4 3 3 3 2 2 2 2 2 2 2 2 2 2 2 2 2 2 2 3 3
67 76 73 69 80 82 75 59 51 45 38 29 21 16 11 9 7 6 5 4 4 3 3 3 2 2 2 2 2 2 2 2 2 2 2 2 2 2 2 2 2 3 3
67 69 77 77 67 56 50 45 39 30 21 16 11 9 7 6 4 4 4 3 3 2 2 2 2 2 2 2 2 2 2 2 2 2 2 2 2 2 2 2 2 3 3
70 67 59 53 49 43 36 28 19 15 12 9 7 6 4 4 4 3 3 2 2 2 2 2 2 2 2 2 2 2 2 2 2 2 2 2 2 2 2 2 2 3 3
51 48 46 39 30 22 16 12 10 8 7 5 4 4 3 3 2 2 2 2 2 2 2 2 2 2 2 1 2 2 1 1 2 2 2 2 2 2 2 2 3 3 3

GFSGL_250_rhum_078.txt.gz
RH
72 73 71 60 58 62 57 60 66 67 66 71 69 59 49 49 44 45 60 60 54 59 61 60 54 66 84 94 94 90 85 72 53 68 63 69 71 76 68 64 53 50 40
61 68 70 68 98 72 59 61 53 53 53 49 42 39 37 36 54 77 77 65 67 74 74 99 100 100 100 100 95 85 72 70 70 66 79 79 80 70 66 55 54 44 26
65 64 77 77 96 99 82 69 49 33 32 31 32 38 63 89 92 98 100 100 100 100 100 100 100 100 99 88 78 75 74 80 79 77 79 78 72 68 58 56 39 24 15
70 62 63 99 100 70 62 47 34 33 39 44 61 79 94 96 100 100 100 100 100 100 100 100 100 95 90 85 80 79 86 88 87 80 74 71 73 64 56 41 23 16 12
79 75 88 72 68 80 68 62 58 64 88 99 100 100 100 100 100 100 100 100 100 100 99 99 99 96 88 82 90 89 90 94 93 90 85 83 75 65 48 32 16 12 11
76 84 86 98 98 92 77 72 75 75 72 83 86 92 100 100 100 100 100 100 100 99 94 78 75 85 97 90 88 97 96 91 87 90 81 74 64 54 31 19 15 10 8
50 52 58 67 87 98 100 96 96 96 96 93 94 94 95 92 92 94 89 81 81 84 86 95 95 88 90 95 96 94 94 98 88 76 65 60 44 32 23 15 10 8 6
59 54 48 55 74 96 100 100 100 100 100 100 100 100 100 100 96 94 86 80 83 80 80 86 88 99 100 96 94 96 94 88 76 68 57 38 32 25 16 10 8 6 5
63 66 64 70 82 82 88 97 100 100 100 90 82 75 72 69 69 70 73 75 72 77 86 97 100 97 98 97 93 85 80 80 73 57 45 34 23 16 12 8 6 5 6
70 68 66 69 73 72 60 58 61 65 68 68 67 73 75 73 74 84 91 93 96 100 100 100 100 98 96 87 77 73 71 66 54 47 35 24 16 11 8 6 6 5 4
84 79 83 73 72 76 85 83 78 67 72 73 69 68 71 78 83 89 96 94 99 100 99 96 91 84 81 79 76 72 59 49 40 28 21 14 10 8 6 6 5 4 4
84 86 89 86 82 83 81 86 79 69 77 84 78 70 71 78 88 94 92 90 89 87 85 84 83 84 78 76 67 56 43 29 24 19 13 10 7 6 6 5 5 4 3
86 91 90 91 93 91 80 88 76 76 74 82 72 73 65 72 76 87 90 88 87 83 82 81 72 68 68 63 56 39 28 22 16 13 9 7 6 5 5 4 4 3 4
86 90 88 82 80 78 87 88 83 78 78 82 86 73 64 71 80 80 80 82 86 84 74 66 66 68 57 50 36 27 20 14 10 7 6 6 6 4 3 3 3 3 3
82 84 81 75 74 79 85 82 81 81 87 88 86 73 67 78 82 86 89 88 76 69 65 62 62 58 46 34 26 19 14 10 7 5 5 5 4 3 3 3 3 3 3
81 77 73 79 77 74 81 83 93 98 99 90 81 69 76 88 88 81 81 73 62 63 55 52 46 33 26 19 16 13 10 7 6 5 3 3 3 3 2 3 3 3 3
72 74 86 77 81 74 78 93 100 100 98 88 70 71 79 78 81 72 72 69 59 53 52 37 24 19 15 12 9 8 7 6 4 4 3 2 2 3 2 2 3 2 3
69 86 74 86 85 89 100 99 100 94 80 66 71 86 92 97 82 64 63 60 59 42 26 20 15 12 9 7 6 5 5 4 3 3 3 3 2 2 2 2 2 2 2
71 70 91 98 97 100 100 100 96 75 68 64 71 72 74 70 65 62 59 51 35 24 17 13 10 7 6 5 4 4 3 3 3 3 2 3 2 2 2 2 2 2 2
100 100 100 99 100 100 97 90 80 66 62 73 73 62 52 48 50 48 31 19 15 12 10 7 6 5 4 4 3 3 3 2 2 2 2 2 2 2 2 2 2 2 2
100 100 100 100 98 93 86 72 55 57 65 65 54 48 51 48 34 22 17 13 10 8 6 5 4 4 3 3 2 2 2 2 2 2 2 2 2 2 2 2 2 2 2
100 99 89 90 79 64 51 51 59 58 57 50 45 39 28 21 18 15 11 9 6 5 4 4 3 3 2 2 2 2 2 2 2 2 2 2 2 2 2 2 2 2 2
78 79 76 60 53 53 55 56 56 47 39 34 26 18 16 12 9 8 6 5 4 4 3 3 2 2 2 2 2 2 2 2 2 2 2 2 2 2 2 2 2 2 2
66 62 53 46 51 52 52 41 36 31 23 16 14 11 9 7 6 5 4 3 3 2 2 2 2 2 2 2 2 2 2 2 2 2 2 2 2 2 2 2 2 2 2
48 46 49 47 44 38 34 27 21 14 12 10 8 6 5 4 4 3 2 2 2 2 2 2 2 2 2 2 2 2 2 2 2 2 2 2 2 2 2 2 2 2 2
46 42 37 35 30 24 17 12 11 9 7 6 4 4 3 3 2 2 2 2 2 2 2 2 2 2 2 1 1 2 2 2 2 2 2 2 2 2 2 2 2 2 2

GFSGL_250_rhum_081.txt.gz
RH
73 88 82 68 72 83 80 79 90 92 87 80 60 54 52 53 53 43 50 47 49 68 97 98 82 82 81 84 95 100 100 86 74 91 89 90 76 76 84 72 78 80 74
84 88 89 80 54 75 89 99 99 93 86 67 55 60 59 51 51 40 46 57 72 90 96 95 95 96 100 100 100 100 90 92 95 81 75 79 75 78 74 75 80 74 76
70 85 84 68 49 74 100 94 97 72 68 63 68 66 73 63 65 75 86 90 97 100 100 100 100 100 100 96 89 90 85 82 79 75 68 72 77 87 78 80 81 83 70
75 65 53 83 73 89 90 100 100 100 80 72 73 81 76 80 78 79 86 94 100 100 99 98 95 88 80 83 88 93 88 81 76 78 78 80 84 88 85 80 78 64 59
54 68 79 88 73 100 100 91 78 89 77 89 100 100 97 98 99 99 97 97 91 89 85 78 77 89 83 77 79 81 82 85 84 78 79 89 100 94 85 74 60 50 46
64 63 57 56 75 77 82 90 68 67 82 88 95 92 86 81 83 90 94 100 100 100 98 84 65 66 73 73 75 81 80 80 80 82 91 87 84 83 68 60 49 37 30
63 68 58 52 51 50 47 48 52 60 63 72 71 73 74 74 73 77 77 72 66 61 59 60 70 74 74 76 86 92 94 93 88 86 88 85 73 64 58 47 34 24 18
63 66 68 59 55 54 57 59 61 66 67 73 76 78 74 70 62 62 67 71 72 70 63 68 66 71 77 84 94 98 98 97 92 88 80 68 63 56 44 33 24 15 13
64 72 64 69 68 63 62 60 64 64 69 72 70 66 61 71 74 78 70 67 68 71 60 63 63 75 82 90 91 93 92 92 90 80 73 68 53 41 32 23 17 10 8
89 95 91 88 84 75 69 73 70 73 72 68 65 65 62 74 73 68 66 61 63 62 71 60 65 72 79 80 78 76 82 87 84 79 76 63 43 32 21 16 11 7 5
80 76 69 69 65 75 93 82 76 75 69 68 64 65 75 81 81 80 70 72 79 76 70 70 72 78 80 78 78 74 73 74 75 62 46 36 27 20 14 10 7 6 5
59 66 71 71 73 82 82 80 80 80 74 70 70 77 88 81 86 89 83 79 89 90 74 75 80 82 90 93 84 81 75 62 44 30 25 19 16 11 8 7 6 5 4
65 70 76 82 81 76 78 84 85 82 74 72 76 90 92 80 81 86 95 97 97 83 71 81 89 92 94 89 85 73 56 38 25 21 17 13 9 7 6 6 5 4 4
67 73 81 89 86 82 81 80 77 69 73 76 86 87 94 80 84 96 97 94 88 71 80 84 87 88 84 77 66 49 36 27 22 16 12 8 7 6 5 5 4 3 3
72 83 89 91 89 80 72 66 70 76 82 91 82 80 90 94 86 90 90 77 71 74 79 76 78 75 67 56 45 33 28 22 15 11 8 7 5 4 3 4 3 3 3
71 82 86 87 73 66 60 66 76 75 82 78 89 99 96 100 100 77 65 71 73 74 75 74 70 56 41 33 30 25 19 14 10 8 7 5 4 3 3 3 4 3 3
80 87 88 80 62 58 75 67 61 71 89 100 98 99 100 100 85 63 57 63 65 67 63 50 40 28 22 18 15 13 10 8 7 6 4 4 3 3 2 2 3 3 2
88 95 81 64 65 74 66 76 90 100 100 100 98 96 90 77 65 60 58 55 60 51 42 30 19 17 14 12 9 7 6 5 4 4 3 3 3 3 2 2 2 2 2
81 73 74 76 78 85 98 94 97 100 99 98 94 86 81 71 68 61 57 51 47 37 29 24 17 13 11 7 6 6 4 3 3 3 3 2 2 2 2 2 2 2 2
74 77 81 88 99 99 96 98 100 99 92 86 81 69 61 56 54 50 43 34 25 19 14 12 10 7 6 5 4 3 3 2 2 2 2 2 2 2 2 2 2 2 2
78 76 84 83 82 91 97 97 94 91 78 66 60 59 54 49 39 27 20 17 12 10 8 6 5 5 4 3 3 2 2 2 2 2 2 2 2 2 2 2 2 2 2
77 73 76 77 82 90 88 81 75 64 55 56 54 47 36 25 19 15 13 11 8 6 5 4 4 3 3 2 2 2 2 2 2 2 2 2 2 2 2 2 2 2 2
72 71 65 70 72 72 68 60 52 50 49 44 35 25 18 13 11 9 7 5 4 4 3 3 2 2 2 2 2 2 2 2 2 2 2 2 2 2 2 2 2 2 2
64 59 60 58 56 53 50 45 43 37 32 22 16 12 9 7 6 5 4 3 3 2 2 2 2 2 2 2 2 2 2 2 2 2 2 2 2 2 2 2 2 2 2
53 56 50 50 47 40 38 34 28 19 14 11 8 6 5 4 4 3 3 2 2 2 2 2 2 2 2 2 2 2 2 1 1 1 2 2 2 2 2 2 2 2 2
47 45 43 34 34 32 25 18 12 10 7 5 4 4 3 3 2 2 2 2 2 2 2 2 2 2 2 2 1 1 1 1 1 1 2 1 1 2 1 2 2 2 2

GFSGL_250_rhum_084.txt.gz
RH
59 55 57 57 60 58 60 65 71 84 94 100 100 92 83 64 66 62 57 74 87 78 80 78 76 81 88 96 98 99 100 99 99 96 84 85 83 78 84 86 88 89 84
73 69 60 50 51 51 82 100 100 98 100 100 100 100 79 71 95 90 100 100 97 95 91 98 100 100 100 100 100 99 96 84 81 89 92 85 80 76 84 91 82 78 82
98 100 90 69 66 68 89 99 99 98 100 100 100 100 100 100 100 100 100 100 99 100 98 99 99 98 92 82 76 83 81 75 67 63 70 78 74 80 74 74 81 85 80
89 97 100 100 96 78 76 98 96 100 100 100 100 100 100 100 100 100 92 90 83 88 76 61 58 60 59 61 69 74 73 67 60 57 60 67 77 81 81 83 88 78 77
60 96 100 100 100 100 99 100 96 99 90 100 100 100 93 87 77 66 61 59 60 63 65 76 72 65 69 71 71 71 68 65 62 58 62 79 88 85 77 75 69 72 76
64 66 70 81 78 60 69 96 100 100 100 97 75 63 53 53 51 56 62 64 64 62 65 70 74 73 69 70 70 65 61 53 52 60 63 71 70 73 64 66 68 67 60
55 62 61 40 40 41 38 35 36 39 39 40 45 48 51 54 59 62 63 65 69 66 68 72 73 71 68 68 71 65 61 57 56 56 70 70 71 64 64 71 66 56 44
65 60 57 55 51 48 45 47 51 54 55 55 53 57 60 61 66 69 70 68 66 66 64 64 69 67 72 79 78 74 73 66 64 67 70 78 72 69 62 56 51 39 32
80 76 74 64 59 56 53 58 61 63 67 66 65 63 63 69 73 72 69 65 62 64 63 62 74 83 78 77 70 75 84 88 81 77 82 80 77 68 51 42 39 28 21
82 84 73 76 76 65 60 58 60 63 68 70 74 78 82 80 80 82 65 62 65 76 91 100 96 89 85 96 80 71 73 74 80 90 89 82 69 60 43 35 26 19 13
80 86 71 74 81 83 69 60 57 66 75 77 74 79 78 74 69 67 69 76 85 92 99 92 88 93 99 94 84 69 63 68 81 82 77 74 64 53 42 29 19 12 9
78 80 85 88 100 89 79 71 66 72 82 81 80 72 68 65 71 70 73 83 90 97 97 94 99 100 98 88 72 69 69 72 68 63 58 50 46 35 27 16 12 9 7
82 79 95 100 100 98 81 77 69 74 78 88 85 70 62 60 68 75 72 74 86 92 100 100 98 94 88 76 73 73 69 61 56 46 38 30 25 20 15 11 8 6 6
70 84 100 100 100 99 87 87 78 84 85 82 80 65 55 62 66 71 74 91 99 97 84 90 91 87 76 71 69 61 53 40 34 30 24 20 14 12 10 7 6 5 4
94 97 100 100 100 100 93 92 82 91 90 72 62 58 61 59 62 78 91 99 90 95 96 90 83 76 71 66 57 45 34 30 24 18 13 10 9 8 7 5 4 3 4
99 100 100 100 100 100 97 84 84 96 80 71 64 70 70 70 98 100 100 100 95 93 83 71 73 70 64 54 42 32 28 23 17 13 10 8 6 6 4 4 3 3 3
100 100 100 100 100 100 88 84 98 82 70 70 79 75 81 100 100 100 98 94 89 79 71 68 63 60 47 35 27 22 18 15 11 8 6 5 4 4 4 3 3 3 3
98 100 100 100 100 97 95 94 67 68 78 74 73 93 98 97 95 88 88 84 69 62 58 56 48 35 26 19 16 12 9 7 6 5 4 4 3 3 3 3 2 2 3
100 100 100 100 100 96 81 68 67 76 76 80 88 86 91 89 87 84 71 63 58 54 50 38 28 20 15 11 8 7 5 5 4 3 3 3 3 3 2 3 2 2 2
100 100 100 100 83 74 77 73 73 64 60 69 80 77 69 72 66 55 50 47 46 39 26 20 14 10 7 6 5 4 4 3 3 3 2 2 2 2 2 2 2 2 2
100 95 92 88 97 79 63 64 58 51 54 62 61 61 57 51 44 41 40 35 22 16 12 8 6 5 4 3 3 3 3 2 2 2 2 2 2 2 2 2 2 2 2
99 100 100 86 68 60 56 51 51 48 47 51 54 44 40 40 37 32 20 13 10 7 6 5 4 3 3 2 2 2 2 2 2 2 2 2 2 2 2 2 2 2 2
86 80 63 58 54 50 47 43 39 40 44 40 33 36 32 28 16 10 8 6 5 4 3 2 2 2 2 2 2 2 2 2 2 2 2 2 2 2 2 2 2 2 2
61 50 50 48 43 37 32 34 37 36 31 29 28 24 14 8 7 5 4 3 3 2 2 2 2 2 2 2 2 2 2 2 2 2 1 1 2 1 2 2 2 2 2
47 45 38 31 30 30 32 32 27 25 24 21 13 8 6 4 4 3 2 2 2 2 2 2 2 2 2 2 2 2 2 1 1 1 1 1 2 2 2 2 2 2 2
37 31 28 30 30 29 25 22 22 18 11 7 6 4 3 2 2 2 2 2 2 2 2 2 1 1 2 2 1 1 1 1 1 1 1 1 1 1 1 1 2 2 2

GFSGL_250_rhum_087.txt.gz
RH
43 36 39 36 41 50 50 50 52 52 53 55 57 51 59 63 100 77 47 51 67 73 81 91 98 92 88 93 79 90 99 81 70 73 71 76 73 73 84 86 83 72 70
39 37 39 51 51 53 64 61 58 51 59 58 81 99 100 100 85 72 99 98 100 100 96 100 100 98 76 62 65 70 71 68 76 81 84 76 84 90 93 90 83 71 73
41 37 31 35 43 50 53 62 58 66 86 100 100 100 80 96 100 100 100 100 100 100 98 85 73 65 68 74 70 63 63 74 82 85 79 88 92 86 79 75 76 68 70
42 45 49 62 63 65 70 85 90 96 100 100 100 100 100 100 100 100 100 100 100 90 78 74 73 70 64 63 64 68 69 70 72 77 87 86 82 75 67 62 65 73 79
50 48 48 57 78 87 80 91 98 99 60 74 100 100 100 88 80 100 100 77 58 53 56 63 66 67 66 68 68 68 70 75 77 83 88 77 78 70 78 73 73 75 84
44 46 70 64 58 41 39 41 43 45 60 86 99 100 100 100 89 50 39 45 52 52 61 60 58 62 70 71 70 70 75 78 75 88 79 80 84 93 90 83 79 80 77
55 57 63 63 50 51 53 55 54 51 49 51 50 49 47 47 51 53 58 60 60 68 74 73 73 66 66 69 73 81 75 74 88 85 76 81 94 94 84 79 77 70 63
72 65 68 64 69 67 67 69 66 54 61 64 69 69 60 54 54 59 64 67 75 73 76 65 64 67 69 72 70 71 71 74 75 74 81 98 96 96 84 76 69 56 54
86 79 77 76 69 66 84 85 81 84 77 96 89 78 79 78 69 69 75 76 76 80 77 70 66 70 70 71 74 79 86 94 92 91 96 96 96 90 81 66 50 39 37
86 92 83 74 81 87 83 74 71 72 72 95 100 98 84 84 85 86 81 87 81 76 80 76 64 62 64 69 72 80 92 99 96 99 100 99 93 82 72 49 35 26 20
75 72 82 92 89 80 75 72 84 85 83 90 97 98 90 94 99 97 98 95 89 83 76 72 63 62 68 65 79 92 93 98 95 98 98 90 80 78 57 45 34 23 16
74 71 71 80 82 84 76 70 76 86 98 99 97 100 93 98 100 98 100 98 88 78 69 60 66 68 70 87 92 92 97 94 91 92 82 75 73 62 45 34 28 21 15
74 78 68 65 68 71 70 74 74 77 77 90 100 100 100 100 100 100 100 87 70 62 56 61 65 69 92 94 99 99 90 91 85 75 69 64 54 41 31 25 19 13 10
87 84 76 76 72 73 71 80 87 88 92 100 100 100 100 100 100 100 92 72 58 57 70 62 68 97 100 94 90 91 84 81 73 64 58 49 38 27 20 14 11 9 7
82 85 85 81 70 73 85 95 92 92 97 100 100 100 100 100 99 95 64 53 59 60 67 93 94 91 92 90 88 83 81 72 63 55 42 27 19 15 10 9 7 6 5
77 86 86 75 70 90 100 100 100 100 100 100 100 100 100 100 90 60 52 55 65 80 86 92 91 90 89 84 76 71 64 54 44 28 18 13 10 8 7 5 4 4 4
90 84 82 72 99 100 100 100 100 100 100 100 100 100 100 83 53 54 64 69 74 79 72 84 88 78 67 64 55 48 44 31 17 12 9 7 6 5 4 4 3 3 3
86 92 88 100 100 100 100 100 100 100 100 100 99 82 62 53 57 55 56 61 63 68 70 65 56 53 49 43 38 30 17 11 8 6 5 4 3 3 3 3 3 3 3
89 95 100 100 100 100 100 100 100 100 93 81 72 60 46 50 50 49 55 51 54 59 52 46 44 40 35 26 17 10 7 6 4 4 3 3 3 3 2 2 2 2 2
100 99 100 100 100 100 98 91 88 79 81 71 54 44 45 42 38 38 39 42 41 40 38 34 27 17 11 9 6 5 4 3 3 3 3 2 2 2 2 2 2 2 2
100 100 100 100 100 86 91 91 74 74 62 46 42 36 32 32 32 32 30 29 30 26 16 10 8 7 5 4 3 3 2 2 2 2 2 2 2 2 2 2 2 2 2
100 100 100 98 94 92 70 68 63 50 38 33 26 26 26 26 26 25 25 20 12 8 6 5 4 4 3 2 2 2 2 2 2 2 2 2 2 2 2 2 2 2 2
100 98 100 85 62 63 61 53 42 32 24 21 23 22 24 23 21 16 9 6 5 4 3 3 2 2 2 2 2 2 2 2 2 2 2 2 2 2 1 1 1 1 2
96 87 72 63 58 56 49 34 25 20 22 21 20 21 18 14 8 6 4 4 3 2 2 2 2 2 2 2 2 2 2 2 2 1 1 1 1 1 1 1 1 2 2
84 64 59 59 56 36 27 20 19 19 18 20 18 12 7 5 4 3 3 2 2 2 2 2 2 2 1 1 1 1 1 1 1 1 1 1 1 1 1 2 1 2 2
60 57 58 40 30 22 18 18 18 19 17 10 6 5 4 3 2 2 2 2 2 2 2 2 1 1 1 1 1 1 1 1 1 1 1 1 1 1 1 1 1 1 1